LA METEO D'AUBAIS- ALT.67 m
Donnes mto: Actuelle jeudi, 07/04/2022 13:03
Date Horaire Temp. E. Hum. E. P.atmo. Pluie Vent Direction Direction Ensoleilleme Horaire Temp Ev.Tr. UV Ray;solaire P. de rose Temp au vent Rafales Rception
07/04/2022 13:03 16,1 C 63 % 1012,4 hPa 0,0 mm 12,4 km/h O-SO 242 0 min 0 min 0,000 mm 1,4 UV-I 264 W/m 9,1 C 13,4 C 26,6 km/h 92,31 %
07/04/2022 13:02 16,1 C 63 % 1012,4 hPa 0,0 mm 7,8 km/h S-SO 213 0 min 0 min 0,000 mm 1,4 UV-I 262 W/m 9,1 C 15,4 C 15,9 km/h 100,00 %
07/04/2022 13:01 16,0 C 63 % 1012,5 hPa 0,0 mm 7,5 km/h O 277 0 min 0 min 0,178 mm 1,5 UV-I 266 W/m 9,0 C 15,4 C 26,6 km/h 100,00 %
07/04/2022 13:00 16,0 C 64 % 1012,5 hPa 0,0 mm 10,5 km/h O 263 0 min 0 min 0,000 mm 1,5 UV-I 271 W/m 9,2 C 14,0 C 21,2 km/h 100,00 %
07/04/2022 12:59 16,0 C 64 % 1012,4 hPa 0,0 mm 6,8 km/h SO 229 0 min 0 min 0,000 mm 1,4 UV-I 271 W/m 9,2 C 15,8 C 15,9 km/h 100,00 %
07/04/2022 12:58 16,0 C 64 % 1012,4 hPa 0,0 mm 8,9 km/h O-SO 243 0 min 0 min 0,000 mm 1,4 UV-I 272 W/m 9,2 C 14,7 C 17,7 km/h 100,00 %
07/04/2022 12:57 15,9 C 64 % 1012,6 hPa 0,0 mm 4,4 km/h O-NO 299 0 min 0 min 0,000 mm 1,4 UV-I 261 W/m 9,1 C 15,9 C 10,6 km/h 100,00 %
07/04/2022 12:56 15,9 C 64 % 1012,4 hPa 0,0 mm 9,0 km/h S-SO 202 0 min 0 min 0,000 mm 1,3 UV-I 248 W/m 9,1 C 14,6 C 24,8 km/h 100,00 %
07/04/2022 12:55 15,9 C 65 % 1012,5 hPa 0,0 mm 6,8 km/h S-SO 210 0 min 0 min 0,000 mm 1,3 UV-I 247 W/m 9,3 C 15,7 C 10,6 km/h 100,00 %
07/04/2022 12:54 15,9 C 65 % 1012,5 hPa 0,0 mm 10,7 km/h O-SO 244 0 min 0 min 0,000 mm 1,3 UV-I 253 W/m 9,3 C 13,8 C 15,9 km/h 100,00 %
07/04/2022 12:53 15,9 C 65 % 1012,5 hPa 0,0 mm 5,6 km/h O-SO 248 0 min 0 min 0,000 mm 1,3 UV-I 255 W/m 9,3 C 15,9 C 8,9 km/h 100,00 %
07/04/2022 12:52 15,9 C 65 % 1012,4 hPa 0,0 mm 8,5 km/h S-SO 205 0 min 0 min 0,000 mm 1,3 UV-I 249 W/m 9,3 C 14,8 C 19,5 km/h 96,15 %
07/04/2022 12:51 15,9 C 66 % 1012,5 hPa 0,0 mm 9,7 km/h S-SO 208 0 min 0 min 0,000 mm 1,3 UV-I 239 W/m 9,6 C 14,2 C 15,9 km/h 100,00 %
07/04/2022 12:50 15,9 C 65 % 1012,4 hPa 0,0 mm 2,6 km/h SO 232 0 min 0 min 0,000 mm 1,2 UV-I 235 W/m 9,3 C 15,9 C 5,3 km/h 92,59 %
07/04/2022 12:49 15,8 C 65 % 1012,4 hPa 0,0 mm 6,4 km/h SO 236 0 min 0 min 0,000 mm 1,3 UV-I 239 W/m 9,2 C 15,8 C 10,6 km/h 96,00 %
07/04/2022 12:48 15,8 C 65 % 1012,5 hPa 0,0 mm 5,3 km/h O-NO 282 0 min 0 min 0,000 mm 1,3 UV-I 241 W/m 9,2 C 15,8 C 12,4 km/h 91,67 %
07/04/2022 12:47 15,8 C 65 % 1012,5 hPa 0,0 mm 7,2 km/h O 275 0 min 0 min 0,000 mm 1,3 UV-I 243 W/m 9,2 C 15,4 C 14,2 km/h 100,00 %
07/04/2022 12:46 15,8 C 65 % 1012,5 hPa 0,0 mm 4,8 km/h O-SO 240 0 min 0 min 0,000 mm 1,3 UV-I 252 W/m 9,2 C 15,8 C 12,4 km/h 93,10 %
07/04/2022 12:45 15,8 C 66 % 1012,5 hPa 0,0 mm 6,6 km/h O 272 0 min 0 min 0,000 mm 1,4 UV-I 259 W/m 9,5 C 15,7 C 10,6 km/h 100,00 %
07/04/2022 12:44 15,8 C 66 % 1012,6 hPa 0,0 mm 1,2 km/h N-NO 327 0 min 0 min 0,000 mm 1,4 UV-I 262 W/m 9,5 C 15,8 C 5,3 km/h 100,00 %
07/04/2022 12:43 15,8 C 65 % 1012,5 hPa 0,0 mm 5,9 km/h O 267 0 min 0 min 0,000 mm 1,4 UV-I 262 W/m 9,2 C 15,8 C 12,4 km/h 100,00 %
07/04/2022 12:42 15,8 C 65 % 1012,5 hPa 0,0 mm 7,5 km/h S-SO 209 0 min 0 min 0,000 mm 1,4 UV-I 263 W/m 9,2 C 15,2 C 12,4 km/h 100,00 %
07/04/2022 12:41 15,8 C 66 % 1012,5 hPa 0,0 mm 8,9 km/h O 265 0 min 0 min 0,000 mm 1,4 UV-I 265 W/m 9,5 C 14,5 C 17,7 km/h 100,00 %
07/04/2022 12:40 15,8 C 66 % 1012,4 hPa 0,0 mm 5,7 km/h O-SO 245 0 min 0 min 0,000 mm 1,4 UV-I 271 W/m 9,5 C 15,8 C 12,4 km/h 100,00 %
07/04/2022 12:39 15,8 C 66 % 1012,5 hPa 0,0 mm 4,0 km/h O-SO 258 0 min 0 min 0,000 mm 1,4 UV-I 273 W/m 9,5 C 15,8 C 7,1 km/h 100,00 %
07/04/2022 12:38 15,8 C 66 % 1012,6 hPa 0,0 mm 2,3 km/h O-SO 250 0 min 0 min 0,000 mm 1,4 UV-I 277 W/m 9,5 C 15,8 C 7,1 km/h 100,00 %
07/04/2022 12:37 15,8 C 66 % 1012,5 hPa 0,0 mm 12,0 km/h O-SO 257 0 min 0 min 0,000 mm 1,4 UV-I 279 W/m 9,5 C 13,2 C 17,7 km/h 100,00 %
07/04/2022 12:36 15,8 C 66 % 1012,5 hPa 0,0 mm 8,4 km/h S-SO 199 0 min 0 min 0,000 mm 1,4 UV-I 279 W/m 9,5 C 14,7 C 17,7 km/h 95,83 %
07/04/2022 12:35 15,8 C 66 % 1012,6 hPa 0,0 mm 5,1 km/h O-SO 252 0 min 0 min 0,000 mm 1,4 UV-I 279 W/m 9,5 C 15,8 C 10,6 km/h 100,00 %
07/04/2022 12:34 15,7 C 66 % 1012,5 hPa 0,0 mm 11,4 km/h O-NO 284 0 min 0 min 0,000 mm 1,4 UV-I 278 W/m 9,4 C 13,3 C 23,0 km/h 100,00 %
07/04/2022 12:33 15,7 C 66 % 1012,6 hPa 0,0 mm 5,7 km/h O 274 0 min 0 min 0,000 mm 1,4 UV-I 275 W/m 9,4 C 15,7 C 14,2 km/h 100,00 %
07/04/2022 12:32 15,7 C 66 % 1012,6 hPa 0,0 mm 7,7 km/h O-SO 237 0 min 0 min 0,000 mm 1,4 UV-I 272 W/m 9,4 C 15,0 C 15,9 km/h 100,00 %
07/04/2022 12:31 15,7 C 66 % 1012,6 hPa 0,0 mm 4,5 km/h O 263 0 min 0 min 0,000 mm 1,3 UV-I 269 W/m 9,4 C 15,7 C 10,6 km/h 100,00 %
07/04/2022 12:30 15,7 C 66 % 1012,6 hPa 0,0 mm 5,3 km/h SO 234 0 min 0 min 0,000 mm 1,3 UV-I 267 W/m 9,4 C 15,7 C 8,9 km/h 93,88 %
07/04/2022 12:29 15,7 C 66 % 1012,6 hPa 0,0 mm 6,9 km/h S-SO 194 0 min 0 min 0,000 mm 1,3 UV-I 268 W/m 9,4 C 15,4 C 12,4 km/h 97,74 %
07/04/2022 12:28 15,7 C 66 % 1012,7 hPa 0,0 mm 12,5 km/h SO 235 0 min 0 min 0,000 mm 1,3 UV-I 271 W/m 9,4 C 12,9 C 26,6 km/h 100,00 %
07/04/2022 12:27 15,7 C 66 % 1012,6 hPa 0,0 mm 5,5 km/h O-NO 285 0 min 0 min 0,000 mm 1,4 UV-I 274 W/m 9,4 C 15,7 C 12,4 km/h 89,47 %
07/04/2022 12:26 15,7 C 66 % 1012,7 hPa 0,0 mm 8,8 km/h SO 229 0 min 0 min 0,000 mm 1,4 UV-I 273 W/m 9,4 C 14,4 C 21,2 km/h 95,83 %
07/04/2022 12:25 15,7 C 66 % 1012,7 hPa 0,0 mm 8,6 km/h S-SO 192 0 min 0 min 0,000 mm 1,3 UV-I 269 W/m 9,4 C 14,5 C 19,5 km/h 93,75 %
07/04/2022 12:23 15,6 C 66 % 1012,6 hPa 0,0 mm 3,4 km/h SO 223 0 min 0 min 0,000 mm 1,3 UV-I 265 W/m 9,3 C 15,6 C 10,6 km/h 96,00 %
07/04/2022 12:22 15,6 C 66 % 1012,6 hPa 0,0 mm 6,6 km/h SO 234 0 min 0 min 0,000 mm 1,3 UV-I 262 W/m 9,3 C 15,5 C 17,7 km/h 91,30 %
07/04/2022 12:21 15,6 C 66 % 1012,7 hPa 0,0 mm 5,8 km/h O-NO 283 0 min 0 min 0,000 mm 1,3 UV-I 265 W/m 9,3 C 15,6 C 14,2 km/h 95,83 %
07/04/2022 12:20 15,6 C 66 % 1012,7 hPa 0,0 mm 6,5 km/h SO 233 0 min 0 min 0,000 mm 1,3 UV-I 269 W/m 9,3 C 15,6 C 15,9 km/h 92,86 %
07/04/2022 12:19 15,6 C 66 % 1012,6 hPa 0,0 mm 8,0 km/h O 261 0 min 0 min 0,000 mm 1,3 UV-I 274 W/m 9,3 C 14,7 C 23,0 km/h 100,00 %
07/04/2022 12:18 15,6 C 66 % 1012,6 hPa 0,0 mm 11,9 km/h O-SO 253 0 min 0 min 0,000 mm 1,4 UV-I 279 W/m 9,3 C 13,0 C 21,2 km/h 92,00 %
07/04/2022 12:17 15,6 C 66 % 1012,6 hPa 0,0 mm 15,1 km/h SO 232 0 min 0 min 0,000 mm 1,4 UV-I 286 W/m 9,3 C 11,9 C 26,6 km/h 100,00 %
07/04/2022 12:16 15,5 C 66 % 1012,6 hPa 0,0 mm 10,1 km/h S-SO 202 0 min 0 min 0,000 mm 1,4 UV-I 292 W/m 9,2 C 13,6 C 21,2 km/h 95,83 %
07/04/2022 12:15 15,5 C 66 % 1012,7 hPa 0,0 mm 4,1 km/h O 259 0 min 0 min 0,000 mm 1,4 UV-I 296 W/m 9,2 C 15,5 C 12,4 km/h 100,00 %
07/04/2022 12:14 15,5 C 66 % 1012,7 hPa 0,0 mm 9,5 km/h O 271 0 min 0 min 0,000 mm 1,5 UV-I 307 W/m 9,2 C 13,9 C 15,9 km/h 96,15 %
07/04/2022 12:13 15,4 C 66 % 1012,6 hPa 0,0 mm 8,7 km/h O 259 0 min 0 min 0,000 mm 1,5 UV-I 318 W/m 9,1 C 14,2 C 23,0 km/h 95,83 %
07/04/2022 12:12 15,4 C 66 % 1012,7 hPa 0,0 mm 7,7 km/h S-SO 205 0 min 0 min 0,000 mm 1,5 UV-I 321 W/m 9,1 C 14,7 C 17,7 km/h 93,33 %
07/04/2022 12:11 15,4 C 66 % 1012,7 hPa 0,0 mm 14,5 km/h S 189 0 min 0 min 0,000 mm 1,5 UV-I 320 W/m 9,1 C 11,8 C 24,8 km/h 96,30 %
07/04/2022 12:10 15,4 C 67 % 1012,7 hPa 0,0 mm 11,0 km/h SO 219 0 min 0 min 0,000 mm 1,5 UV-I 323 W/m 9,3 C 13,1 C 21,2 km/h 100,00 %
07/04/2022 12:09 15,4 C 67 % 1012,7 hPa 0,0 mm 4,5 km/h S 182 0 min 0 min 0,000 mm 1,5 UV-I 321 W/m 9,3 C 15,4 C 14,2 km/h 97,14 %
07/04/2022 12:08 15,4 C 67 % 1012,7 hPa 0,0 mm 6,0 km/h SO 231 0 min 0 min 0,000 mm 1,5 UV-I 323 W/m 9,3 C 15,4 C 8,9 km/h 100,00 %
07/04/2022 12:07 15,3 C 67 % 1012,7 hPa 0,0 mm 8,9 km/h S-SE 159 0 min 0 min 0,000 mm 1,5 UV-I 321 W/m 9,2 C 14,0 C 19,5 km/h 92,86 %
07/04/2022 12:06 15,3 C 67 % 1012,7 hPa 0,0 mm 10,4 km/h SO 234 0 min 0 min 0,000 mm 1,5 UV-I 316 W/m 9,2 C 13,3 C 28,3 km/h 98,25 %
07/04/2022 12:04 15,3 C 67 % 1012,7 hPa 0,0 mm 6,1 km/h O-SO 257 0 min 0 min 0,000 mm 1,5 UV-I 299 W/m 9,2 C 15,3 C 15,9 km/h 100,00 %
07/04/2022 12:03 15,3 C 67 % 1012,7 hPa 0,0 mm 7,4 km/h S-SO 192 0 min 0 min 0,000 mm 1,3 UV-I 286 W/m 9,2 C 14,7 C 15,9 km/h 97,50 %
07/04/2022 12:02 15,3 C 67 % 1012,6 hPa 0,0 mm 2,2 km/h S 178 0 min 0 min 0,000 mm 1,3 UV-I 273 W/m 9,2 C 15,3 C 5,3 km/h 90,91 %
07/04/2022 12:01 15,2 C 67 % 1012,7 hPa 0,0 mm 6,9 km/h S 184 0 min 0 min 0,152 mm 1,3 UV-I 266 W/m 9,1 C 14,9 C 12,4 km/h 95,83 %
07/04/2022 12:00 15,2 C 67 % 1012,7 hPa 0,0 mm 9,7 km/h O-SO 241 0 min 0 min 0,000 mm 1,3 UV-I 264 W/m 9,1 C 13,5 C 14,2 km/h 95,83 %
07/04/2022 11:59 15,2 C 67 % 1012,7 hPa 0,0 mm 14,4 km/h O-NO 303 0 min 0 min 0,000 mm 1,3 UV-I 264 W/m 9,1 C 11,6 C 24,8 km/h 100,00 %
07/04/2022 11:58 15,2 C 67 % 1012,7 hPa 0,0 mm 13,1 km/h NO 311 0 min 0 min 0,000 mm 1,3 UV-I 262 W/m 9,1 C 12,1 C 23,0 km/h 95,83 %
07/04/2022 11:57 15,2 C 67 % 1012,7 hPa 0,0 mm 15,9 km/h SO 236 0 min 0 min 0,000 mm 1,2 UV-I 263 W/m 9,1 C 11,1 C 31,9 km/h 96,00 %
07/04/2022 11:56 15,2 C 67 % 1012,7 hPa 0,0 mm 4,7 km/h SO 234 0 min 0 min 0,000 mm 1,3 UV-I 268 W/m 9,1 C 15,2 C 17,7 km/h 95,83 %
07/04/2022 11:55 15,2 C 67 % 1012,7 hPa 0,0 mm 9,4 km/h O-NO 289 0 min 0 min 0,000 mm 1,3 UV-I 272 W/m 9,1 C 13,6 C 17,7 km/h 92,59 %
07/04/2022 11:54 15,2 C 68 % 1012,6 hPa 0,0 mm 11,5 km/h O-SO 248 0 min 0 min 0,000 mm 1,3 UV-I 274 W/m 9,3 C 12,7 C 26,6 km/h 100,00 %
07/04/2022 11:53 15,2 C 68 % 1012,7 hPa 0,0 mm 9,2 km/h S-SO 196 0 min 0 min 0,000 mm 1,3 UV-I 274 W/m 9,3 C 13,7 C 15,9 km/h 85,71 %
07/04/2022 11:52 15,2 C 68 % 1012,7 hPa 0,0 mm 6,6 km/h O-SO 240 0 min 0 min 0,000 mm 1,3 UV-I 277 W/m 9,3 C 15,1 C 23,0 km/h 100,00 %
07/04/2022 11:51 15,1 C 69 % 1012,6 hPa 0,0 mm 5,5 km/h O 271 0 min 0 min 0,000 mm 1,3 UV-I 279 W/m 9,5 C 15,1 C 15,9 km/h 91,67 %
07/04/2022 11:50 15,1 C 69 % 1012,7 hPa 0,0 mm 4,2 km/h S-SE 151 0 min 0 min 0,000 mm 1,3 UV-I 282 W/m 9,5 C 15,1 C 14,2 km/h 100,00 %
07/04/2022 11:49 15,1 C 69 % 1012,7 hPa 0,0 mm 5,8 km/h SO 222 0 min 0 min 0,000 mm 1,3 UV-I 289 W/m 9,5 C 15,1 C 12,4 km/h 91,67 %
07/04/2022 11:48 15,0 C 68 % 1012,6 hPa 0,0 mm 4,2 km/h SO 223 0 min 0 min 0,000 mm 1,3 UV-I 293 W/m 9,1 C 15,0 C 7,1 km/h 100,00 %
07/04/2022 11:47 15,0 C 68 % 1012,7 hPa 0,0 mm 7,4 km/h S-SO 202 0 min 0 min 0,000 mm 1,3 UV-I 298 W/m 9,1 C 14,4 C 15,9 km/h 94,44 %
07/04/2022 11:46 14,9 C 68 % 1012,7 hPa 0,0 mm 6,2 km/h O-SO 258 0 min 0 min 0,000 mm 1,3 UV-I 297 W/m 9,0 C 14,9 C 14,2 km/h 100,00 %
07/04/2022 11:45 14,9 C 68 % 1012,7 hPa 0,0 mm 8,9 km/h O-SO 254 0 min 0 min 0,000 mm 1,3 UV-I 295 W/m 9,0 C 13,5 C 19,5 km/h 100,00 %
07/04/2022 11:44 14,9 C 68 % 1012,7 hPa 0,0 mm 10,7 km/h S-SO 198 0 min 0 min 0,000 mm 1,3 UV-I 293 W/m 9,0 C 12,7 C 19,5 km/h 100,00 %
07/04/2022 11:43 14,9 C 68 % 1012,7 hPa 0,0 mm 10,2 km/h S 186 0 min 0 min 0,000 mm 1,3 UV-I 289 W/m 9,0 C 12,9 C 19,5 km/h 100,00 %
07/04/2022 11:42 14,9 C 68 % 1012,7 hPa 0,0 mm 12,2 km/h S-SO 211 0 min 0 min 0,000 mm 1,3 UV-I 288 W/m 9,0 C 12,1 C 21,2 km/h 100,00 %
07/04/2022 11:41 14,9 C 68 % 1012,6 hPa 0,0 mm 11,5 km/h O-NO 294 0 min 0 min 0,000 mm 1,3 UV-I 287 W/m 9,0 C 12,4 C 24,8 km/h 100,00 %
07/04/2022 11:40 14,9 C 69 % 1012,7 hPa 0,0 mm 15,9 km/h S-SO 197 0 min 0 min 0,000 mm 1,3 UV-I 288 W/m 9,3 C 10,8 C 26,6 km/h 100,00 %
07/04/2022 11:39 14,9 C 69 % 1012,7 hPa 0,0 mm 6,0 km/h O-SO 248 0 min 0 min 0,000 mm 1,3 UV-I 288 W/m 9,3 C 14,9 C 12,4 km/h 96,00 %
07/04/2022 11:38 14,9 C 69 % 1012,7 hPa 0,0 mm 8,6 km/h O-SO 252 0 min 0 min 0,000 mm 1,3 UV-I 286 W/m 9,3 C 13,7 C 17,7 km/h 100,00 %
07/04/2022 11:37 14,9 C 69 % 1012,7 hPa 0,0 mm 8,6 km/h S-SO 196 0 min 0 min 0,000 mm 1,3 UV-I 284 W/m 9,3 C 13,7 C 17,7 km/h 100,00 %
07/04/2022 11:36 14,8 C 70 % 1012,7 hPa 0,0 mm 11,8 km/h O-SO 257 0 min 0 min 0,000 mm 1,3 UV-I 279 W/m 9,4 C 12,1 C 19,5 km/h 100,00 %
07/04/2022 11:35 14,8 C 70 % 1012,7 hPa 0,0 mm 12,4 km/h SO 217 0 min 0 min 0,000 mm 1,3 UV-I 276 W/m 9,4 C 11,9 C 23,0 km/h 100,00 %
07/04/2022 11:34 14,8 C 70 % 1012,7 hPa 0,0 mm 12,3 km/h O-SO 249 0 min 0 min 0,000 mm 1,3 UV-I 274 W/m 9,4 C 11,9 C 19,5 km/h 100,00 %
07/04/2022 11:33 14,8 C 70 % 1012,6 hPa 0,0 mm 5,7 km/h O 271 0 min 0 min 0,000 mm 1,2 UV-I 272 W/m 9,4 C 14,8 C 14,2 km/h 100,00 %
07/04/2022 11:32 14,8 C 70 % 1012,7 hPa 0,0 mm 4,8 km/h O-SO 243 0 min 0 min 0,000 mm 1,2 UV-I 267 W/m 9,4 C 14,8 C 10,6 km/h 100,00 %
07/04/2022 11:31 14,8 C 70 % 1012,6 hPa 0,0 mm 7,9 km/h O-SO 255 0 min 0 min 0,000 mm 1,2 UV-I 263 W/m 9,4 C 13,9 C 17,7 km/h 100,00 %
07/04/2022 11:30 14,8 C 70 % 1012,7 hPa 0,0 mm 4,9 km/h O-NO 290 0 min 0 min 0,000 mm 1,2 UV-I 258 W/m 9,4 C 14,8 C 12,4 km/h 95,65 %
07/04/2022 11:29 14,7 C 70 % 1012,7 hPa 0,0 mm 5,0 km/h O 264 0 min 0 min 0,000 mm 1,2 UV-I 255 W/m 9,3 C 14,7 C 15,9 km/h 96,15 %
07/04/2022 11:28 14,7 C 70 % 1012,6 hPa 0,0 mm 5,7 km/h O-SO 248 0 min 0 min 0,000 mm 1,1 UV-I 250 W/m 9,3 C 14,7 C 19,5 km/h 96,43 %
07/04/2022 11:27 14,7 C 70 % 1012,6 hPa 0,0 mm 14,0 km/h O-SO 248 0 min 0 min 0,000 mm 1,1 UV-I 245 W/m 9,3 C 11,2 C 23,0 km/h 96,30 %
07/04/2022 11:26 14,7 C 70 % 1012,6 hPa 0,0 mm 6,8 km/h O 277 0 min 0 min 0,000 mm 1,1 UV-I 243 W/m 9,3 C 14,5 C 12,4 km/h 100,00 %
07/04/2022 11:25 14,7 C 70 % 1012,5 hPa 0,0 mm 4,8 km/h O-SO 237 0 min 0 min 0,000 mm 1,1 UV-I 241 W/m 9,3 C 14,7 C 8,9 km/h 96,15 %
07/04/2022 11:24 14,7 C 70 % 1012,5 hPa 0,0 mm 2,0 km/h O 265 0 min 0 min 0,000 mm 1,1 UV-I 239 W/m 9,3 C 14,7 C 5,3 km/h 100,00 %
07/04/2022 11:23 14,7 C 69 % 1012,5 hPa 0,0 mm 9,1 km/h SO 223 0 min 0 min 0,000 mm 1,0 UV-I 237 W/m 9,1 C 13,2 C 17,7 km/h 100,00 %
07/04/2022 11:22 14,7 C 69 % 1012,4 hPa 0,0 mm 11,9 km/h O-NO 294 0 min 0 min 0,000 mm 1,0 UV-I 235 W/m 9,1 C 12,0 C 19,5 km/h 95,83 %
07/04/2022 11:21 14,7 C 70 % 1012,4 hPa 0,0 mm 8,8 km/h O 263 0 min 0 min 0,000 mm 1,0 UV-I 233 W/m 9,3 C 13,4 C 15,9 km/h 96,00 %
07/04/2022 11:20 14,7 C 70 % 1012,3 hPa 0,0 mm 10,5 km/h O 264 0 min 0 min 0,000 mm 1,0 UV-I 231 W/m 9,3 C 12,6 C 19,5 km/h 100,00 %
07/04/2022 11:19 14,7 C 70 % 1012,3 hPa 0,0 mm 11,6 km/h SO 232 0 min 0 min 0,000 mm 1,0 UV-I 229 W/m 9,3 C 12,1 C 21,2 km/h 96,30 %
07/04/2022 11:18 14,7 C 70 % 1012,3 hPa 0,0 mm 6,8 km/h SO 230 0 min 0 min 0,000 mm 1,0 UV-I 227 W/m 9,3 C 14,5 C 8,9 km/h 100,00 %
07/04/2022 11:17 14,7 C 70 % 1012,3 hPa 0,0 mm 10,2 km/h SO 234 0 min 0 min 0,000 mm 0,9 UV-I 225 W/m 9,3 C 12,7 C 19,5 km/h 100,00 %
07/04/2022 11:16 14,7 C 70 % 1012,4 hPa 0,0 mm 7,6 km/h S 179 0 min 0 min 0,000 mm 0,9 UV-I 225 W/m 9,3 C 14,0 C 15,9 km/h 100,00 %
07/04/2022 11:15 14,7 C 70 % 1012,3 hPa 0,0 mm 10,5 km/h SO 231 0 min 0 min 0,000 mm 0,9 UV-I 224 W/m 9,3 C 12,6 C 21,2 km/h 100,00 %
07/04/2022 11:14 14,7 C 70 % 1012,4 hPa 0,0 mm 10,6 km/h O 268 0 min 0 min 0,000 mm 0,9 UV-I 223 W/m 9,3 C 12,5 C 19,5 km/h 100,00 %
07/04/2022 11:13 14,7 C 70 % 1012,4 hPa 0,0 mm 8,6 km/h S-SO 192 0 min 0 min 0,000 mm 0,9 UV-I 221 W/m 9,3 C 13,5 C 21,2 km/h 96,15 %
07/04/2022 11:12 14,7 C 70 % 1012,4 hPa 0,0 mm 6,2 km/h O 273 0 min 0 min 0,000 mm 0,9 UV-I 221 W/m 9,3 C 14,7 C 14,2 km/h 100,00 %
07/04/2022 11:11 14,7 C 70 % 1012,4 hPa 0,0 mm 8,9 km/h S 188 0 min 0 min 0,000 mm 0,9 UV-I 221 W/m 9,3 C 13,3 C 15,9 km/h 100,00 %
07/04/2022 11:10 14,7 C 70 % 1012,4 hPa 0,0 mm 4,1 km/h S-SO 194 0 min 0 min 0,000 mm 0,9 UV-I 221 W/m 9,3 C 14,7 C 10,6 km/h 100,00 %
07/04/2022 11:09 14,6 C 70 % 1012,4 hPa 0,0 mm 7,1 km/h O 261 0 min 0 min 0,000 mm 0,9 UV-I 221 W/m 9,2 C 14,2 C 15,9 km/h 100,00 %
07/04/2022 11:08 14,7 C 70 % 1012,4 hPa 0,0 mm 4,4 km/h SE 131 0 min 0 min 0,000 mm 0,9 UV-I 221 W/m 9,3 C 14,7 C 14,2 km/h 100,00 %
07/04/2022 11:07 14,7 C 71 % 1012,3 hPa 0,0 mm 9,0 km/h O 262 0 min 0 min 0,000 mm 0,9 UV-I 221 W/m 9,5 C 13,3 C 15,9 km/h 100,00 %
07/04/2022 11:06 14,6 C 71 % 1012,5 hPa 0,0 mm 5,3 km/h O-SO 247 0 min 0 min 0,000 mm 0,9 UV-I 220 W/m 9,4 C 14,6 C 15,9 km/h 96,67 %
07/04/2022 11:05 14,6 C 70 % 1012,4 hPa 0,0 mm 9,7 km/h O-SO 237 0 min 0 min 0,000 mm 0,9 UV-I 220 W/m 9,2 C 12,8 C 19,5 km/h 100,00 %
07/04/2022 11:04 14,6 C 71 % 1012,4 hPa 0,0 mm 8,8 km/h S-SO 209 0 min 0 min 0,000 mm 0,9 UV-I 222 W/m 9,4 C 13,3 C 15,9 km/h 100,00 %
07/04/2022 11:03 14,6 C 71 % 1012,5 hPa 0,0 mm 8,7 km/h O 265 0 min 0 min 0,000 mm 0,9 UV-I 225 W/m 9,4 C 13,3 C 14,2 km/h 100,00 %
07/04/2022 11:02 14,6 C 71 % 1012,5 hPa 0,0 mm 8,9 km/h SO 234 0 min 0 min 0,000 mm 0,9 UV-I 238 W/m 9,4 C 13,2 C 19,5 km/h 86,67 %
07/04/2022 11:01 14,6 C 71 % 1012,5 hPa 0,0 mm 11,3 km/h S-SO 201 0 min 0 min 0,127 mm 0,9 UV-I 243 W/m 9,4 C 12,1 C 19,5 km/h 100,00 %
07/04/2022 11:00 14,6 C 71 % 1012,6 hPa 0,0 mm 5,5 km/h O-SO 248 0 min 0 min 0,000 mm 0,9 UV-I 258 W/m 9,4 C 14,6 C 14,2 km/h 92,00 %
07/04/2022 10:59 14,6 C 72 % 1012,6 hPa 0,0 mm 6,8 km/h O-SO 250 0 min 0 min 0,000 mm 1,0 UV-I 267 W/m 9,6 C 14,4 C 14,2 km/h 100,00 %
07/04/2022 10:58 14,6 C 72 % 1012,5 hPa 0,0 mm 8,4 km/h O 263 0 min 0 min 0,000 mm 1,0 UV-I 275 W/m 9,6 C 13,5 C 21,2 km/h 95,83 %
07/04/2022 10:57 14,6 C 72 % 1012,4 hPa 0,0 mm 10,1 km/h O-SO 248 0 min 0 min 0,000 mm 1,0 UV-I 279 W/m 9,6 C 12,6 C 21,2 km/h 100,00 %
07/04/2022 10:56 14,5 C 72 % 1012,5 hPa 0,0 mm 5,7 km/h SO 230 0 min 0 min 0,000 mm 1,1 UV-I 278 W/m 9,5 C 14,5 C 12,4 km/h 91,67 %
07/04/2022 10:55 14,5 C 72 % 1012,4 hPa 0,0 mm 11,1 km/h O 269 0 min 0 min 0,000 mm 1,0 UV-I 282 W/m 9,5 C 12,1 C 17,7 km/h 100,00 %
07/04/2022 10:54 14,4 C 72 % 1012,4 hPa 0,0 mm 9,0 km/h O-SO 248 0 min 0 min 0,000 mm 1,0 UV-I 276 W/m 9,4 C 12,9 C 17,7 km/h 100,00 %
07/04/2022 10:53 14,4 C 72 % 1012,4 hPa 0,0 mm 7,9 km/h S-SO 199 0 min 0 min 0,000 mm 1,0 UV-I 266 W/m 9,4 C 13,5 C 15,9 km/h 100,00 %
07/04/2022 10:52 14,4 C 72 % 1012,3 hPa 0,0 mm 7,8 km/h O-SO 254 0 min 0 min 0,000 mm 1,0 UV-I 278 W/m 9,4 C 13,6 C 17,7 km/h 96,67 %
07/04/2022 10:51 14,4 C 72 % 1012,4 hPa 0,0 mm 6,9 km/h O 259 0 min 0 min 0,000 mm 1,0 UV-I 286 W/m 9,4 C 14,1 C 15,9 km/h 100,00 %
07/04/2022 10:50 14,3 C 72 % 1012,4 hPa 0,0 mm 7,4 km/h O-SO 243 0 min 0 min 0,000 mm 1,0 UV-I 273 W/m 9,3 C 13,7 C 14,2 km/h 100,00 %
07/04/2022 10:49 14,3 C 72 % 1012,4 hPa 0,0 mm 8,0 km/h O-SO 237 0 min 0 min 0,000 mm 1,0 UV-I 289 W/m 9,3 C 13,4 C 14,2 km/h 96,15 %
07/04/2022 10:48 14,3 C 72 % 1012,4 hPa 0,0 mm 11,4 km/h O-SO 249 0 min 0 min 0,000 mm 1,0 UV-I 256 W/m 9,3 C 11,7 C 17,7 km/h 100,00 %
07/04/2022 10:47 14,3 C 72 % 1012,4 hPa 0,0 mm 7,3 km/h S 186 0 min 0 min 0,000 mm 0,9 UV-I 249 W/m 9,3 C 13,8 C 10,6 km/h 100,00 %
07/04/2022 10:46 14,3 C 72 % 1012,4 hPa 0,0 mm 3,8 km/h O 259 0 min 0 min 0,000 mm 0,9 UV-I 243 W/m 9,3 C 14,3 C 8,9 km/h 100,00 %
07/04/2022 10:45 14,2 C 72 % 1012,4 hPa 0,0 mm 4,6 km/h SO 227 0 min 0 min 0,000 mm 0,9 UV-I 238 W/m 9,2 C 14,2 C 8,9 km/h 100,00 %
07/04/2022 10:44 14,2 C 72 % 1012,3 hPa 0,0 mm 10,6 km/h SO 234 0 min 0 min 0,000 mm 0,9 UV-I 235 W/m 9,2 C 12,0 C 15,9 km/h 100,00 %
07/04/2022 10:43 14,2 C 72 % 1012,3 hPa 0,0 mm 9,2 km/h S-SO 202 0 min 0 min 0,000 mm 0,9 UV-I 230 W/m 9,2 C 12,6 C 17,7 km/h 100,00 %
07/04/2022 10:42 14,2 C 73 % 1012,3 hPa 0,0 mm 5,0 km/h SO 220 0 min 0 min 0,000 mm 0,9 UV-I 230 W/m 9,4 C 14,2 C 14,2 km/h 100,00 %
07/04/2022 10:41 14,2 C 73 % 1012,3 hPa 0,0 mm 6,6 km/h O-SO 253 0 min 0 min 0,000 mm 0,9 UV-I 234 W/m 9,4 C 14,1 C 17,7 km/h 100,00 %
07/04/2022 10:40 14,2 C 73 % 1012,3 hPa 0,0 mm 5,8 km/h SO 234 0 min 0 min 0,000 mm 0,9 UV-I 238 W/m 9,4 C 14,2 C 14,2 km/h 100,00 %
07/04/2022 10:39 14,1 C 73 % 1012,3 hPa 0,0 mm 6,1 km/h S-SO 201 0 min 0 min 0,000 mm 0,9 UV-I 247 W/m 9,3 C 14,1 C 14,2 km/h 100,00 %
07/04/2022 10:38 14,1 C 73 % 1012,3 hPa 0,0 mm 2,8 km/h O-SO 245 0 min 0 min 0,000 mm 0,9 UV-I 250 W/m 9,3 C 14,1 C 7,1 km/h 96,15 %
07/04/2022 10:37 14,1 C 73 % 1012,3 hPa 0,0 mm 3,7 km/h SO 226 0 min 0 min 0,000 mm 0,9 UV-I 250 W/m 9,3 C 14,1 C 10,6 km/h 95,65 %
07/04/2022 10:36 14,1 C 73 % 1012,3 hPa 0,0 mm 7,6 km/h O-SO 240 0 min 0 min 0,000 mm 0,9 UV-I 236 W/m 9,3 C 13,4 C 12,4 km/h 100,00 %
07/04/2022 10:35 14,1 C 73 % 1012,3 hPa 0,0 mm 5,6 km/h SO 216 0 min 0 min 0,000 mm 0,9 UV-I 231 W/m 9,3 C 14,1 C 12,4 km/h 91,67 %
07/04/2022 10:34 14,0 C 72 % 1012,4 hPa 0,0 mm 7,0 km/h O-SO 241 0 min 0 min 0,000 mm 0,9 UV-I 227 W/m 9,0 C 13,6 C 17,7 km/h 96,67 %
07/04/2022 10:33 14,0 C 73 % 1012,3 hPa 0,0 mm 4,6 km/h O-SO 240 0 min 0 min 0,000 mm 0,8 UV-I 225 W/m 9,2 C 14,0 C 8,9 km/h 96,55 %
07/04/2022 10:32 13,9 C 73 % 1012,3 hPa 0,0 mm 10,8 km/h SO 220 0 min 0 min 0,000 mm 0,8 UV-I 221 W/m 9,1 C 11,5 C 19,5 km/h 100,00 %
07/04/2022 10:31 13,9 C 73 % 1012,3 hPa 0,0 mm 8,6 km/h O-SO 240 0 min 0 min 0,000 mm 0,8 UV-I 216 W/m 9,1 C 12,6 C 21,2 km/h 92,00 %
07/04/2022 10:30 13,9 C 73 % 1012,3 hPa 0,0 mm 3,2 km/h SO 217 0 min 0 min 0,000 mm 0,8 UV-I 210 W/m 9,1 C 13,9 C 7,1 km/h 100,00 %
07/04/2022 10:29 13,9 C 73 % 1012,3 hPa 0,0 mm 7,9 km/h O-SO 243 0 min 0 min 0,000 mm 0,8 UV-I 208 W/m 9,1 C 13,0 C 14,2 km/h 92,31 %
07/04/2022 10:28 13,8 C 74 % 1012,3 hPa 0,0 mm 5,9 km/h O-SO 254 0 min 0 min 0,000 mm 0,8 UV-I 207 W/m 9,2 C 13,8 C 15,9 km/h 96,55 %
07/04/2022 10:27 13,8 C 74 % 1012,3 hPa 0,0 mm 4,8 km/h SO 217 0 min 0 min 0,000 mm 0,8 UV-I 207 W/m 9,2 C 13,8 C 14,2 km/h 100,00 %
07/04/2022 10:26 13,8 C 74 % 1012,4 hPa 0,0 mm 4,0 km/h SO 229 0 min 0 min 0,000 mm 0,8 UV-I 209 W/m 9,2 C 13,8 C 7,1 km/h 96,43 %
07/04/2022 10:25 13,8 C 74 % 1012,4 hPa 0,0 mm 2,8 km/h O-SO 243 0 min 0 min 0,000 mm 0,8 UV-I 211 W/m 9,2 C 13,8 C 7,1 km/h 100,00 %
07/04/2022 10:24 13,8 C 74 % 1012,4 hPa 0,0 mm 6,5 km/h SO 216 0 min 0 min 0,000 mm 0,8 UV-I 214 W/m 9,2 C 13,8 C 12,4 km/h 100,00 %
07/04/2022 10:23 13,7 C 74 % 1012,4 hPa 0,0 mm 3,5 km/h SO 218 0 min 0 min 0,000 mm 0,8 UV-I 213 W/m 9,2 C 13,7 C 8,9 km/h 91,67 %
07/04/2022 10:22 13,7 C 74 % 1012,3 hPa 0,0 mm 5,4 km/h S 186 0 min 0 min 0,000 mm 0,8 UV-I 212 W/m 9,2 C 13,7 C 12,4 km/h 100,00 %
07/04/2022 10:21 13,7 C 74 % 1012,4 hPa 0,0 mm 7,0 km/h O-SO 241 0 min 0 min 0,000 mm 0,8 UV-I 208 W/m 9,2 C 13,3 C 14,2 km/h 95,83 %
07/04/2022 10:20 13,6 C 74 % 1012,4 hPa 0,0 mm 3,5 km/h SO 235 0 min 0 min 0,000 mm 0,8 UV-I 206 W/m 9,1 C 13,6 C 7,1 km/h 96,43 %
07/04/2022 10:19 13,6 C 74 % 1012,4 hPa 0,0 mm 2,8 km/h SO 226 0 min 0 min 0,000 mm 0,8 UV-I 206 W/m 9,1 C 13,6 C 7,1 km/h 100,00 %
07/04/2022 10:18 13,6 C 74 % 1012,4 hPa 0,0 mm 5,8 km/h O-SO 244 0 min 0 min 0,000 mm 0,8 UV-I 208 W/m 9,1 C 13,6 C 8,9 km/h 100,00 %
07/04/2022 10:17 13,6 C 74 % 1012,4 hPa 0,0 mm 5,5 km/h SO 221 0 min 0 min 0,000 mm 0,8 UV-I 212 W/m 9,1 C 13,6 C 17,7 km/h 95,83 %
07/04/2022 10:16 13,5 C 75 % 1012,4 hPa 0,0 mm 4,8 km/h O-SO 237 0 min 0 min 0,000 mm 0,8 UV-I 213 W/m 9,2 C 13,5 C 12,4 km/h 100,00 %
07/04/2022 10:15 13,5 C 75 % 1012,3 hPa 0,0 mm 2,5 km/h O-NO 285 0 min 0 min 0,000 mm 0,8 UV-I 212 W/m 9,2 C 13,5 C 7,1 km/h 100,00 %
07/04/2022 10:14 13,5 C 75 % 1012,4 hPa 0,0 mm 4,2 km/h O-SO 244 0 min 0 min 0,000 mm 0,7 UV-I 209 W/m 9,2 C 13,5 C 8,9 km/h 100,00 %
07/04/2022 10:13 13,4 C 75 % 1012,4 hPa 0,0 mm 2,3 km/h SO 232 0 min 0 min 0,000 mm 0,7 UV-I 203 W/m 9,1 C 13,4 C 10,6 km/h 96,77 %
07/04/2022 10:12 13,4 C 75 % 1012,3 hPa 0,0 mm 0,4 km/h SO 227 0 min 0 min 0,000 mm 0,7 UV-I 191 W/m 9,1 C 13,4 C 1,8 km/h 100,00 %
07/04/2022 10:11 13,4 C 75 % 1012,3 hPa 0,0 mm 4,7 km/h SO 227 0 min 0 min 0,000 mm 0,7 UV-I 187 W/m 9,1 C 13,4 C 10,6 km/h 96,77 %
07/04/2022 10:10 13,3 C 75 % 1012,3 hPa 0,0 mm 3,0 km/h O 278 0 min 0 min 0,000 mm 0,7 UV-I 190 W/m 9,0 C 13,3 C 5,3 km/h 100,00 %
07/04/2022 10:09 13,3 C 75 % 1012,3 hPa 0,0 mm 7,2 km/h SO 232 0 min 0 min 0,000 mm 0,7 UV-I 190 W/m 9,0 C 12,8 C 14,2 km/h 93,33 %
07/04/2022 10:08 13,3 C 75 % 1012,3 hPa 0,0 mm 6,5 km/h O-SO 242 0 min 0 min 0,000 mm 0,6 UV-I 187 W/m 9,0 C 13,3 C 17,7 km/h 98,18 %
07/04/2022 10:06 13,3 C 75 % 1012,2 hPa 0,0 mm 6,6 km/h SO 217 0 min 0 min 0,000 mm 0,6 UV-I 186 W/m 9,0 C 13,2 C 12,4 km/h 87,50 %
07/04/2022 10:05 13,2 C 75 % 1012,3 hPa 0,0 mm 3,8 km/h S-SO 210 0 min 0 min 0,000 mm 0,6 UV-I 183 W/m 8,9 C 13,2 C 8,9 km/h 83,33 %
07/04/2022 10:04 13,2 C 75 % 1012,3 hPa 0,0 mm 5,3 km/h O-SO 238 0 min 0 min 0,000 mm 0,6 UV-I 181 W/m 8,9 C 13,2 C 14,2 km/h 100,00 %
07/04/2022 10:03 13,2 C 75 % 1012,2 hPa 0,0 mm 0,6 km/h O-SO 251 0 min 0 min 0,000 mm 0,6 UV-I 179 W/m 8,9 C 13,2 C 3,5 km/h 92,00 %
07/04/2022 10:02 13,2 C 76 % 1012,2 hPa 0,0 mm 5,5 km/h S-SO 202 0 min 0 min 0,000 mm 0,6 UV-I 174 W/m 9,1 C 13,2 C 15,9 km/h 100,00 %
07/04/2022 10:01 13,2 C 76 % 1012,2 hPa 0,0 mm 5,8 km/h O-NO 299 0 min 0 min 0,076 mm 0,6 UV-I 171 W/m 9,1 C 13,2 C 14,2 km/h 91,67 %
07/04/2022 10:00 13,1 C 76 % 1012,2 hPa 0,0 mm 7,0 km/h SO 225 0 min 0 min 0,000 mm 0,6 UV-I 168 W/m 9,0 C 12,7 C 12,4 km/h 95,83 %
07/04/2022 09:59 13,1 C 76 % 1012,2 hPa 0,0 mm 4,4 km/h O 273 0 min 0 min 0,000 mm 0,5 UV-I 162 W/m 9,0 C 13,1 C 8,9 km/h 95,83 %
07/04/2022 09:58 13,1 C 76 % 1012,1 hPa 0,0 mm 3,0 km/h O 261 0 min 0 min 0,000 mm 0,5 UV-I 157 W/m 9,0 C 13,1 C 8,9 km/h 96,00 %
07/04/2022 09:57 13,1 C 76 % 1012,1 hPa 0,0 mm 0,1 km/h O-SO 252 0 min 0 min 0,000 mm 0,5 UV-I 155 W/m 9,0 C 13,1 C 1,8 km/h 100,00 %
07/04/2022 09:56 13,1 C 76 % 1012,1 hPa 0,0 mm 3,3 km/h O-SO 252 0 min 0 min 0,000 mm 0,5 UV-I 151 W/m 9,0 C 13,1 C 10,6 km/h 95,83 %
07/04/2022 09:55 13,0 C 76 % 1012,2 hPa 0,0 mm 2,3 km/h SO 229 0 min 0 min 0,000 mm 0,5 UV-I 149 W/m 8,9 C 13,0 C 7,1 km/h 96,00 %
07/04/2022 09:54 13,0 C 76 % 1012,2 hPa 0,0 mm 1,8 km/h S-SO 208 0 min 0 min 0,000 mm 0,5 UV-I 147 W/m 8,9 C 13,0 C 10,6 km/h 100,00 %
07/04/2022 09:53 13,0 C 76 % 1012,2 hPa 0,0 mm 5,1 km/h SO 219 0 min 0 min 0,000 mm 0,5 UV-I 146 W/m 8,9 C 13,0 C 10,6 km/h 97,44 %
07/04/2022 09:52 12,9 C 76 % 1012,2 hPa 0,0 mm 5,3 km/h SO 222 0 min 0 min 0,000 mm 0,5 UV-I 146 W/m 8,8 C 12,9 C 10,6 km/h 97,80 %
07/04/2022 09:51 12,9 C 76 % 1012,1 hPa 0,0 mm 2,0 km/h SO 229 0 min 0 min 0,000 mm 0,5 UV-I 146 W/m 8,8 C 12,9 C 7,1 km/h 96,97 %
07/04/2022 09:50 12,9 C 76 % 1012,1 hPa 0,0 mm 2,8 km/h SO 219 0 min 0 min 0,000 mm 0,5 UV-I 144 W/m 8,8 C 12,9 C 7,1 km/h 100,00 %
07/04/2022 09:49 12,9 C 76 % 1012,0 hPa 0,0 mm 0,4 km/h O-SO 254 0 min 0 min 0,000 mm 0,3 UV-I 139 W/m 8,8 C 12,9 C 3,5 km/h 96,77 %
07/04/2022 09:48 12,9 C 76 % 1012,0 hPa 0,0 mm 3,8 km/h O 262 0 min 0 min 0,000 mm 0,0 UV-I 138 W/m 8,8 C 12,9 C 12,4 km/h 100,00 %
07/04/2022 09:47 12,9 C 76 % 1012,0 hPa 0,0 mm 2,8 km/h O-SO 240 0 min 0 min 0,000 mm 0,0 UV-I 137 W/m 8,8 C 12,9 C 5,3 km/h 95,83 %
07/04/2022 09:46 12,8 C 76 % 1012,2 hPa 0,0 mm 4,5 km/h O 265 0 min 0 min 0,000 mm 0,0 UV-I 136 W/m 8,7 C 12,8 C 10,6 km/h 93,94 %
07/04/2022 09:45 12,8 C 76 % 1012,1 hPa 0,0 mm 3,4 km/h SO 219 0 min 0 min 0,000 mm 0,0 UV-I 135 W/m 8,7 C 12,8 C 10,6 km/h 100,00 %
07/04/2022 09:44 12,8 C 76 % 1012,1 hPa 0,0 mm 5,0 km/h O-SO 253 0 min 0 min 0,000 mm 0,0 UV-I 134 W/m 8,7 C 12,8 C 12,4 km/h 91,67 %
07/04/2022 09:43 12,8 C 76 % 1012,1 hPa 0,0 mm 6,2 km/h SO 218 0 min 0 min 0,000 mm 0,0 UV-I 134 W/m 8,7 C 12,8 C 14,2 km/h 100,00 %
07/04/2022 09:42 12,8 C 76 % 1012,1 hPa 0,0 mm 1,8 km/h O-SO 240 0 min 0 min 0,000 mm 0,0 UV-I 134 W/m 8,7 C 12,8 C 5,3 km/h 90,91 %
07/04/2022 09:41 12,7 C 76 % 1012,2 hPa 0,0 mm 4,5 km/h O-SO 243 0 min 0 min 0,000 mm 0,0 UV-I 134 W/m 8,6 C 12,7 C 8,9 km/h 96,43 %
07/04/2022 09:40 12,7 C 76 % 1012,1 hPa 0,0 mm 3,9 km/h O-SO 238 0 min 0 min 0,000 mm 0,0 UV-I 133 W/m 8,6 C 12,7 C 7,1 km/h 95,83 %
07/04/2022 09:39 12,7 C 76 % 1012,1 hPa 0,0 mm 1,7 km/h O 268 0 min 0 min 0,000 mm 0,0 UV-I 132 W/m 8,6 C 12,7 C 7,1 km/h 100,00 %
07/04/2022 09:38 12,7 C 76 % 1012,1 hPa 0,0 mm 3,2 km/h SO 225 0 min 0 min 0,000 mm 0,0 UV-I 130 W/m 8,6 C 12,7 C 8,9 km/h 96,00 %
07/04/2022 09:37 12,7 C 76 % 1012,1 hPa 0,0 mm 5,5 km/h S-SO 209 0 min 0 min 0,000 mm 0,0 UV-I 128 W/m 8,6 C 12,7 C 8,9 km/h 100,00 %
07/04/2022 09:36 12,7 C 76 % 1012,1 hPa 0,0 mm 2,1 km/h O-SO 248 0 min 0 min 0,000 mm 0,0 UV-I 128 W/m 8,6 C 12,7 C 7,1 km/h 91,67 %
07/04/2022 09:35 12,6 C 76 % 1012,2 hPa 0,0 mm 1,8 km/h O-SO 237 0 min 0 min 0,000 mm 0,0 UV-I 128 W/m 8,5 C 12,6 C 5,3 km/h 91,67 %
07/04/2022 09:34 12,6 C 76 % 1012,3 hPa 0,0 mm 7,0 km/h S-SO 201 0 min 0 min 0,000 mm 0,0 UV-I 128 W/m 8,5 C 12,2 C 10,6 km/h 96,00 %
07/04/2022 09:33 12,6 C 76 % 1012,2 hPa 0,0 mm 3,5 km/h O-SO 246 0 min 0 min 0,000 mm 0,0 UV-I 127 W/m 8,5 C 12,6 C 8,9 km/h 91,67 %
07/04/2022 09:32 12,6 C 76 % 1012,2 hPa 0,0 mm 2,4 km/h SO 219 0 min 0 min 0,000 mm 0,0 UV-I 125 W/m 8,5 C 12,6 C 5,3 km/h 97,62 %
07/04/2022 09:31 12,5 C 76 % 1012,1 hPa 0,0 mm 3,7 km/h SO 220 0 min 0 min 0,000 mm 0,0 UV-I 121 W/m 8,4 C 12,5 C 8,9 km/h 100,00 %
07/04/2022 09:29 12,4 C 76 % 1012,2 hPa 0,0 mm 4,9 km/h S-SO 211 0 min 0 min 0,000 mm 0,0 UV-I 117 W/m 8,3 C 12,4 C 8,9 km/h 96,00 %
07/04/2022 09:28 12,4 C 76 % 1012,2 hPa 0,0 mm 3,5 km/h SO 234 0 min 0 min 0,000 mm 0,0 UV-I 115 W/m 8,3 C 12,4 C 7,1 km/h 100,00 %
07/04/2022 09:27 12,4 C 76 % 1012,2 hPa 0,0 mm 5,0 km/h S-SO 212 0 min 0 min 0,000 mm 0,0 UV-I 114 W/m 8,3 C 12,4 C 8,9 km/h 95,83 %
07/04/2022 09:26 12,3 C 77 % 1012,1 hPa 0,0 mm 2,5 km/h S-SO 205 0 min 0 min 0,000 mm 0,0 UV-I 113 W/m 8,4 C 12,3 C 8,9 km/h 100,00 %
07/04/2022 09:25 12,3 C 77 % 1012,2 hPa 0,0 mm 6,7 km/h S-SO 205 0 min 0 min 0,000 mm 0,0 UV-I 110 W/m 8,4 C 12,1 C 10,6 km/h 100,00 %
07/04/2022 09:24 12,3 C 77 % 1012,1 hPa 0,0 mm 4,1 km/h S-SE 164 0 min 0 min 0,000 mm 0,0 UV-I 108 W/m 8,4 C 12,3 C 8,9 km/h 100,00 %
07/04/2022 09:23 12,3 C 77 % 1012,1 hPa 0,0 mm 6,7 km/h O-NO 286 0 min 0 min 0,000 mm 0,0 UV-I 105 W/m 8,4 C 12,1 C 12,4 km/h 100,00 %
07/04/2022 09:22 12,2 C 77 % 1012,2 hPa 0,0 mm 2,5 km/h SO 230 0 min 0 min 0,000 mm 0,0 UV-I 101 W/m 8,3 C 12,2 C 5,3 km/h 96,55 %
07/04/2022 09:21 12,2 C 77 % 1012,2 hPa 0,0 mm 6,0 km/h S-SO 205 0 min 0 min 0,000 mm 0,0 UV-I 97 W/m 8,3 C 12,2 C 10,6 km/h 92,86 %
07/04/2022 09:20 12,2 C 78 % 1012,2 hPa 0,0 mm 5,2 km/h O 265 0 min 0 min 0,000 mm 0,0 UV-I 95 W/m 8,5 C 12,2 C 12,4 km/h 100,00 %
07/04/2022 09:19 12,1 C 78 % 1012,1 hPa 0,0 mm 4,4 km/h SO 230 0 min 0 min 0,000 mm 0,0 UV-I 92 W/m 8,4 C 12,1 C 12,4 km/h 100,00 %
07/04/2022 09:18 12,1 C 78 % 1012,1 hPa 0,0 mm 4,8 km/h O 281 0 min 0 min 0,000 mm 0,0 UV-I 91 W/m 8,4 C 12,1 C 10,6 km/h 95,83 %
07/04/2022 09:17 12,1 C 78 % 1012,2 hPa 0,0 mm 1,8 km/h O-SO 242 0 min 0 min 0,000 mm 0,0 UV-I 91 W/m 8,4 C 12,1 C 5,3 km/h 100,00 %
07/04/2022 09:16 12,0 C 78 % 1012,2 hPa 0,0 mm 4,7 km/h SO 226 0 min 0 min 0,000 mm 0,0 UV-I 91 W/m 8,3 C 12,0 C 15,9 km/h 100,00 %
07/04/2022 09:15 12,0 C 78 % 1012,2 hPa 0,0 mm 4,1 km/h O-SO 238 0 min 0 min 0,000 mm 0,0 UV-I 93 W/m 8,3 C 12,0 C 10,6 km/h 100,00 %
07/04/2022 09:14 11,9 C 78 % 1012,2 hPa 0,0 mm 4,1 km/h S-SO 209 0 min 0 min 0,000 mm 0,0 UV-I 94 W/m 8,2 C 11,9 C 10,6 km/h 100,00 %
07/04/2022 09:13 11,9 C 78 % 1012,1 hPa 0,0 mm 1,0 km/h SO 229 0 min 0 min 0,000 mm 0,0 UV-I 95 W/m 8,2 C 11,9 C 5,3 km/h 100,00 %
07/04/2022 09:12 11,9 C 79 % 1012,2 hPa 0,0 mm 3,5 km/h SO 230 0 min 0 min 0,000 mm 0,0 UV-I 95 W/m 8,4 C 11,9 C 5,3 km/h 100,00 %
07/04/2022 09:11 11,8 C 79 % 1012,2 hPa 0,0 mm 2,5 km/h S-SO 208 0 min 0 min 0,000 mm 0,0 UV-I 95 W/m 8,3 C 11,8 C 7,1 km/h 100,00 %
07/04/2022 09:10 11,8 C 79 % 1012,2 hPa 0,0 mm 0,0 km/h O-SO 248 0 min 0 min 0,000 mm 0,0 UV-I 95 W/m 8,3 C 11,8 C 0,0 km/h 100,00 %
07/04/2022 09:09 11,8 C 79 % 1012,2 hPa 0,0 mm 0,7 km/h O-SO 248 0 min 0 min 0,000 mm 0,0 UV-I 97 W/m 8,3 C 11,8 C 5,3 km/h 100,00 %
07/04/2022 09:08 11,8 C 79 % 1012,2 hPa 0,0 mm 4,9 km/h O-SO 246 0 min 0 min 0,000 mm 0,0 UV-I 97 W/m 8,3 C 11,8 C 10,6 km/h 96,67 %
07/04/2022 09:07 11,7 C 79 % 1012,2 hPa 0,0 mm 3,9 km/h O-SO 244 0 min 0 min 0,000 mm 0,0 UV-I 97 W/m 8,2 C 11,7 C 7,1 km/h 100,00 %
07/04/2022 09:06 11,7 C 79 % 1012,2 hPa 0,0 mm 3,4 km/h S-SO 194 0 min 0 min 0,000 mm 0,0 UV-I 97 W/m 8,2 C 11,7 C 7,1 km/h 96,30 %
07/04/2022 09:05 11,7 C 79 % 1012,2 hPa 0,0 mm 2,1 km/h O-SO 240 0 min 0 min 0,000 mm 0,0 UV-I 97 W/m 8,2 C 11,7 C 5,3 km/h 96,00 %
07/04/2022 09:04 11,7 C 79 % 1012,1 hPa 0,0 mm 0,0 km/h S 172 0 min 0 min 0,000 mm 0,0 UV-I 97 W/m 8,2 C 11,7 C 0,0 km/h 93,33 %
07/04/2022 09:03 11,7 C 80 % 1012,2 hPa 0,0 mm 0,3 km/h S 172 0 min 0 min 0,000 mm 0,0 UV-I 97 W/m 8,4 C 11,7 C 1,8 km/h 100,00 %
07/04/2022 09:02 11,6 C 80 % 1012,1 hPa 0,0 mm 0,8 km/h S 173 0 min 0 min 0,000 mm 0,0 UV-I 97 W/m 8,3 C 11,6 C 3,5 km/h 93,33 %
07/04/2022 09:01 11,6 C 80 % 1012,1 hPa 0,0 mm 1,1 km/h S 173 0 min 0 min 0,026 mm 0,0 UV-I 97 W/m 8,3 C 11,6 C 5,3 km/h 100,00 %
07/04/2022 09:00 11,6 C 80 % 1012,1 hPa 0,0 mm 0,0 km/h S 169 0 min 0 min 0,000 mm 0,0 UV-I 97 W/m 8,3 C 11,6 C 0,0 km/h 96,15 %
07/04/2022 08:59 11,6 C 80 % 1012,2 hPa 0,0 mm 1,8 km/h S 169 0 min 0 min 0,000 mm 0,0 UV-I 97 W/m 8,3 C 11,6 C 7,1 km/h 95,83 %
07/04/2022 08:58 11,6 C 80 % 1012,2 hPa 0,0 mm 0,6 km/h SO 219 0 min 0 min 0,000 mm 0,0 UV-I 97 W/m 8,3 C 11,6 C 1,8 km/h 100,00 %
07/04/2022 08:57 11,6 C 80 % 1012,2 hPa 0,0 mm 0,0 km/h SO 219 0 min 0 min 0,000 mm 0,0 UV-I 97 W/m 8,3 C 11,6 C 0,0 km/h 100,00 %
07/04/2022 08:56 11,5 C 79 % 1012,2 hPa 0,0 mm 0,0 km/h SO 219 0 min 0 min 0,000 mm 0,0 UV-I 99 W/m 8,0 C 11,5 C 0,0 km/h 100,00 %
07/04/2022 08:55 11,5 C 79 % 1012,2 hPa 0,0 mm 0,2 km/h SO 219 0 min 0 min 0,000 mm 0,0 UV-I 100 W/m 8,0 C 11,5 C 1,8 km/h 100,00 %
07/04/2022 08:54 11,5 C 79 % 1012,2 hPa 0,0 mm 0,2 km/h SO 219 0 min 0 min 0,000 mm 0,0 UV-I 101 W/m 8,0 C 11,5 C 1,8 km/h 100,00 %
07/04/2022 08:53 11,4 C 79 % 1012,2 hPa 0,0 mm 0,0 km/h SO 219 0 min 0 min 0,000 mm 0,0 UV-I 102 W/m 7,9 C 11,4 C 0,0 km/h 100,00 %
07/04/2022 08:52 11,4 C 79 % 1012,2 hPa 0,0 mm 0,0 km/h SO 219 0 min 0 min 0,000 mm 0,0 UV-I 102 W/m 7,9 C 11,4 C 0,0 km/h 100,00 %
07/04/2022 08:51 11,4 C 79 % 1012,2 hPa 0,0 mm 0,4 km/h SO 219 0 min 0 min 0,000 mm 0,0 UV-I 102 W/m 7,9 C 11,4 C 1,8 km/h 100,00 %
07/04/2022 08:50 11,4 C 79 % 1012,2 hPa 0,0 mm 0,0 km/h SO 219 0 min 0 min 0,000 mm 0,0 UV-I 99 W/m 7,9 C 11,4 C 0,0 km/h 95,83 %
07/04/2022 08:49 11,4 C 79 % 1012,2 hPa 0,0 mm 0,0 km/h SO 219 0 min 0 min 0,000 mm 0,0 UV-I 98 W/m 7,9 C 11,4 C 0,0 km/h 100,00 %
07/04/2022 08:48 11,4 C 79 % 1012,2 hPa 0,0 mm 0,1 km/h SO 219 0 min 0 min 0,000 mm 0,0 UV-I 95 W/m 7,9 C 11,4 C 1,8 km/h 100,00 %
07/04/2022 08:47 11,3 C 79 % 1012,3 hPa 0,0 mm 0,0 km/h SO 219 0 min 0 min 0,000 mm 0,0 UV-I 91 W/m 7,8 C 11,3 C 0,0 km/h 96,30 %
07/04/2022 08:46 11,3 C 79 % 1012,2 hPa 0,0 mm 0,0 km/h SO 219 0 min 0 min 0,000 mm 0,0 UV-I 86 W/m 7,8 C 11,3 C 0,0 km/h 100,00 %
07/04/2022 08:45 11,3 C 79 % 1012,3 hPa 0,0 mm 0,0 km/h SO 219 0 min 0 min 0,000 mm 0,0 UV-I 83 W/m 7,8 C 11,3 C 0,0 km/h 100,00 %
07/04/2022 08:44 11,3 C 79 % 1012,3 hPa 0,0 mm 0,0 km/h SO 219 0 min 0 min 0,000 mm 0,0 UV-I 78 W/m 7,8 C 11,3 C 0,0 km/h 100,00 %
07/04/2022 08:43 11,3 C 79 % 1012,3 hPa 0,0 mm 1,4 km/h SO 219 0 min 0 min 0,000 mm 0,0 UV-I 73 W/m 7,8 C 11,3 C 3,5 km/h 100,00 %
07/04/2022 08:42 11,3 C 79 % 1012,2 hPa 0,0 mm 0,0 km/h SO 219 0 min 0 min 0,000 mm 0,0 UV-I 68 W/m 7,8 C 11,3 C 0,0 km/h 100,00 %
07/04/2022 08:41 11,3 C 79 % 1012,3 hPa 0,0 mm 2,4 km/h SO 219 0 min 0 min 0,000 mm 0,0 UV-I 64 W/m 7,8 C 11,3 C 7,1 km/h 100,00 %
07/04/2022 08:40 11,3 C 79 % 1012,3 hPa 0,0 mm 0,0 km/h O-SO 241 0 min 0 min 0,000 mm 0,0 UV-I 62 W/m 7,8 C 11,3 C 0,0 km/h 100,00 %
07/04/2022 08:39 11,3 C 79 % 1012,3 hPa 0,0 mm 0,9 km/h O-SO 241 0 min 0 min 0,000 mm 0,0 UV-I 56 W/m 7,8 C 11,3 C 5,3 km/h 100,00 %
07/04/2022 08:38 11,2 C 79 % 1012,3 hPa 0,0 mm 1,2 km/h O-SO 258 0 min 0 min 0,000 mm 0,0 UV-I 53 W/m 7,7 C 11,2 C 7,1 km/h 92,86 %
07/04/2022 08:37 11,2 C 79 % 1012,3 hPa 0,0 mm 0,2 km/h O-SO 240 0 min 0 min 0,000 mm 0,0 UV-I 49 W/m 7,7 C 11,2 C 1,8 km/h 96,00 %
07/04/2022 08:36 11,2 C 79 % 1012,3 hPa 0,0 mm 0,0 km/h O-SO 240 0 min 0 min 0,000 mm 0,0 UV-I 46 W/m 7,7 C 11,2 C 0,0 km/h 96,15 %
07/04/2022 08:35 11,2 C 79 % 1012,3 hPa 0,0 mm 0,0 km/h O-SO 241 0 min 0 min 0,000 mm 0,0 UV-I 43 W/m 7,7 C 11,2 C 0,0 km/h 100,00 %
07/04/2022 08:34 11,2 C 79 % 1012,3 hPa 0,0 mm 0,0 km/h O-SO 241 0 min 0 min 0,000 mm 0,0 UV-I 40 W/m 7,7 C 11,2 C 0,0 km/h 91,67 %
07/04/2022 08:33 11,2 C 79 % 1012,4 hPa 0,0 mm 0,0 km/h O-SO 242 0 min 0 min 0,000 mm 0,0 UV-I 38 W/m 7,7 C 11,2 C 0,0 km/h 100,00 %
07/04/2022 08:32 11,2 C 80 % 1012,3 hPa 0,0 mm 2,1 km/h O-SO 242 0 min 0 min 0,000 mm 0,0 UV-I 37 W/m 7,9 C 11,2 C 7,1 km/h 95,83 %
07/04/2022 08:31 11,1 C 80 % 1012,3 hPa 0,0 mm 1,2 km/h S-SO 205 0 min 0 min 0,000 mm 0,0 UV-I 36 W/m 7,8 C 11,1 C 3,5 km/h 95,83 %
07/04/2022 08:30 11,1 C 80 % 1012,3 hPa 0,0 mm 0,5 km/h S-SE 149 0 min 0 min 0,000 mm 0,0 UV-I 35 W/m 7,8 C 11,1 C 3,5 km/h 96,00 %
07/04/2022 08:29 11,1 C 80 % 1012,3 hPa 0,0 mm 0,0 km/h SO 223 0 min 0 min 0,000 mm 0,0 UV-I 33 W/m 7,8 C 11,1 C 0,0 km/h 100,00 %
07/04/2022 08:28 11,1 C 80 % 1012,3 hPa 0,0 mm 0,0 km/h SO 223 0 min 0 min 0,000 mm 0,0 UV-I 33 W/m 7,8 C 11,1 C 0,0 km/h 100,00 %
07/04/2022 08:27 11,1 C 80 % 1012,3 hPa 0,0 mm 0,7 km/h SO 223 0 min 0 min 0,000 mm 0,0 UV-I 33 W/m 7,8 C 11,1 C 3,5 km/h 91,67 %
07/04/2022 08:26 11,1 C 80 % 1012,2 hPa 0,0 mm 0,0 km/h SO 223 0 min 0 min 0,000 mm 0,0 UV-I 33 W/m 7,8 C 11,1 C 0,0 km/h 100,00 %
07/04/2022 08:25 11,1 C 80 % 1012,2 hPa 0,0 mm 0,4 km/h SO 223 0 min 0 min 0,000 mm 0,0 UV-I 33 W/m 7,8 C 11,1 C 3,5 km/h 100,00 %
07/04/2022 08:24 11,1 C 80 % 1012,2 hPa 0,0 mm 0,3 km/h SO 227 0 min 0 min 0,000 mm 0,0 UV-I 33 W/m 7,8 C 11,1 C 3,5 km/h 97,44 %
07/04/2022 08:22 11,0 C 80 % 1012,1 hPa 0,0 mm 0,5 km/h SO 228 0 min 0 min 0,000 mm 0,0 UV-I 32 W/m 7,7 C 11,0 C 3,5 km/h 96,67 %
07/04/2022 08:21 11,0 C 80 % 1012,2 hPa 0,0 mm 0,0 km/h SO 215 0 min 0 min 0,000 mm 0,0 UV-I 30 W/m 7,7 C 11,0 C 0,0 km/h 100,00 %
07/04/2022 08:20 11,0 C 80 % 1012,1 hPa 0,0 mm 0,0 km/h SO 215 0 min 0 min 0,000 mm 0,0 UV-I 29 W/m 7,7 C 11,0 C 0,0 km/h 96,97 %
07/04/2022 08:19 11,0 C 80 % 1012,1 hPa 0,0 mm 0,0 km/h SO 215 0 min 0 min 0,000 mm 0,0 UV-I 27 W/m 7,7 C 11,0 C 0,0 km/h 100,00 %
07/04/2022 08:18 10,9 C 79 % 1012,1 hPa 0,0 mm 0,0 km/h SO 215 0 min 0 min 0,000 mm 0,0 UV-I 26 W/m 7,4 C 10,9 C 0,0 km/h 100,00 %
07/04/2022 08:17 10,9 C 79 % 1012,1 hPa 0,0 mm 0,0 km/h SO 215 0 min 0 min 0,000 mm 0,0 UV-I 25 W/m 7,4 C 10,9 C 0,0 km/h 100,00 %
07/04/2022 08:16 10,9 C 79 % 1012,1 hPa 0,0 mm 0,0 km/h SO 215 0 min 0 min 0,000 mm 0,0 UV-I 25 W/m 7,4 C 10,9 C 0,0 km/h 100,00 %
07/04/2022 08:15 10,9 C 79 % 1012,1 hPa 0,0 mm 1,3 km/h SO 215 0 min 0 min 0,000 mm 0,0 UV-I 22 W/m 7,4 C 10,9 C 5,3 km/h 95,83 %
07/04/2022 08:14 10,9 C 79 % 1012,1 hPa 0,0 mm 0,0 km/h SO 215 0 min 0 min 0,000 mm 0,0 UV-I 21 W/m 7,4 C 10,9 C 0,0 km/h 100,00 %
07/04/2022 08:13 10,9 C 79 % 1012,1 hPa 0,0 mm 1,4 km/h SO 215 0 min 0 min 0,000 mm 0,0 UV-I 21 W/m 7,4 C 10,9 C 3,5 km/h 100,00 %
07/04/2022 08:12 10,9 C 79 % 1012,1 hPa 0,0 mm 0,0 km/h SO 215 0 min 0 min 0,000 mm 0,0 UV-I 21 W/m 7,4 C 10,9 C 0,0 km/h 100,00 %
07/04/2022 08:11 10,9 C 79 % 1012,1 hPa 0,0 mm 0,0 km/h SO 215 0 min 0 min 0,000 mm 0,0 UV-I 19 W/m 7,4 C 10,9 C 0,0 km/h 100,00 %
07/04/2022 08:10 10,9 C 79 % 1012,1 hPa 0,0 mm 0,0 km/h SO 225 0 min 0 min 0,000 mm 0,0 UV-I 19 W/m 7,4 C 10,9 C 0,0 km/h 100,00 %
07/04/2022 08:09 10,9 C 79 % 1012,1 hPa 0,0 mm 0,0 km/h SO 225 0 min 0 min 0,000 mm 0,0 UV-I 19 W/m 7,4 C 10,9 C 0,0 km/h 95,83 %
07/04/2022 08:08 10,9 C 79 % 1012,1 hPa 0,0 mm 0,0 km/h SO 225 0 min 0 min 0,000 mm 0,0 UV-I 19 W/m 7,4 C 10,9 C 0,0 km/h 100,00 %
07/04/2022 08:07 10,9 C 79 % 1012,0 hPa 0,0 mm 0,0 km/h SO 225 0 min 0 min 0,000 mm 0,0 UV-I 19 W/m 7,4 C 10,9 C 0,0 km/h 95,65 %
07/04/2022 08:06 10,9 C 79 % 1011,9 hPa 0,0 mm 0,0 km/h SO 225 0 min 0 min 0,000 mm 0,0 UV-I 18 W/m 7,4 C 10,9 C 0,0 km/h 96,30 %
07/04/2022 08:05 10,9 C 79 % 1011,9 hPa 0,0 mm 0,4 km/h SO 225 0 min 0 min 0,000 mm 0,0 UV-I 18 W/m 7,4 C 10,9 C 3,5 km/h 100,00 %
07/04/2022 08:04 10,9 C 79 % 1011,9 hPa 0,0 mm 0,3 km/h SE 136 0 min 0 min 0,000 mm 0,0 UV-I 18 W/m 7,4 C 10,9 C 3,5 km/h 96,00 %
07/04/2022 08:03 10,9 C 79 % 1011,9 hPa 0,0 mm 0,0 km/h SE 138 0 min 0 min 0,000 mm 0,0 UV-I 18 W/m 7,4 C 10,9 C 0,0 km/h 100,00 %
07/04/2022 08:02 10,9 C 79 % 1012,0 hPa 0,0 mm 0,0 km/h SE 138 0 min 0 min 0,000 mm 0,0 UV-I 18 W/m 7,4 C 10,9 C 0,0 km/h 96,30 %
07/04/2022 08:01 10,9 C 79 % 1012,0 hPa 0,0 mm 0,0 km/h SE 138 0 min 0 min 0,000 mm 0,0 UV-I 17 W/m 7,4 C 10,9 C 0,0 km/h 96,00 %
07/04/2022 08:00 10,9 C 79 % 1012,0 hPa 0,0 mm 0,0 km/h SE 138 0 min 0 min 0,000 mm 0,0 UV-I 16 W/m 7,4 C 10,9 C 0,0 km/h 91,30 %
07/04/2022 07:59 10,9 C 79 % 1012,0 hPa 0,0 mm 0,0 km/h SE 138 0 min 0 min 0,000 mm 0,0 UV-I 16 W/m 7,4 C 10,9 C 0,0 km/h 100,00 %
07/04/2022 07:58 10,9 C 79 % 1011,9 hPa 0,0 mm 0,0 km/h SE 138 0 min 0 min 0,000 mm 0,0 UV-I 16 W/m 7,4 C 10,9 C 0,0 km/h 92,31 %
07/04/2022 07:57 10,9 C 79 % 1011,9 hPa 0,0 mm 0,0 km/h SE 138 0 min 0 min 0,000 mm 0,0 UV-I 16 W/m 7,4 C 10,9 C 0,0 km/h 100,00 %
07/04/2022 07:56 10,9 C 79 % 1011,9 hPa 0,0 mm 0,0 km/h SE 138 0 min 0 min 0,000 mm 0,0 UV-I 16 W/m 7,4 C 10,9 C 0,0 km/h 100,00 %
07/04/2022 07:55 10,9 C 79 % 1011,9 hPa 0,0 mm 0,0 km/h SE 138 0 min 0 min 0,000 mm 0,0 UV-I 16 W/m 7,4 C 10,9 C 0,0 km/h 100,00 %
07/04/2022 07:54 10,9 C 79 % 1011,9 hPa 0,0 mm 0,0 km/h SE 138 0 min 0 min 0,000 mm 0,0 UV-I 16 W/m 7,4 C 10,9 C 0,0 km/h 100,00 %
07/04/2022 07:53 10,9 C 79 % 1011,9 hPa 0,0 mm 0,0 km/h SE 138 0 min 0 min 0,000 mm 0,0 UV-I 16 W/m 7,4 C 10,9 C 0,0 km/h 95,83 %
07/04/2022 07:52 10,9 C 79 % 1011,8 hPa 0,0 mm 0,0 km/h SE 138 0 min 0 min 0,000 mm 0,0 UV-I 16 W/m 7,4 C 10,9 C 0,0 km/h 100,00 %
07/04/2022 07:51 10,9 C 79 % 1011,9 hPa 0,0 mm 0,0 km/h SE 138 0 min 0 min 0,000 mm 0,0 UV-I 15 W/m 7,4 C 10,9 C 0,0 km/h 91,67 %
07/04/2022 07:50 10,9 C 79 % 1011,9 hPa 0,0 mm 0,0 km/h SE 138 0 min 0 min 0,000 mm 0,0 UV-I 14 W/m 7,4 C 10,9 C 0,0 km/h 100,00 %
07/04/2022 07:49 11,0 C 79 % 1011,9 hPa 0,0 mm 0,0 km/h SE 138 0 min 0 min 0,000 mm 0,0 UV-I 14 W/m 7,5 C 11,0 C 0,0 km/h 96,00 %
07/04/2022 07:48 11,0 C 79 % 1012,0 hPa 0,0 mm 0,0 km/h SE 138 0 min 0 min 0,000 mm 0,0 UV-I 14 W/m 7,5 C 11,0 C 0,0 km/h 100,00 %
07/04/2022 07:47 11,0 C 79 % 1011,9 hPa 0,0 mm 0,0 km/h SE 138 0 min 0 min 0,000 mm 0,0 UV-I 14 W/m 7,5 C 11,0 C 0,0 km/h 96,00 %
07/04/2022 07:46 11,0 C 79 % 1011,9 hPa 0,0 mm 0,0 km/h SE 138 0 min 0 min 0,000 mm 0,0 UV-I 13 W/m 7,5 C 11,0 C 0,0 km/h 96,30 %
07/04/2022 07:45 11,0 C 79 % 1011,9 hPa 0,0 mm 0,0 km/h SE 138 0 min 0 min 0,000 mm 0,0 UV-I 12 W/m 7,5 C 11,0 C 0,0 km/h 100,00 %
07/04/2022 07:44 11,0 C 79 % 1011,9 hPa 0,0 mm 0,0 km/h SE 138 0 min 0 min 0,000 mm 0,0 UV-I 12 W/m 7,5 C 11,0 C 0,0 km/h 96,30 %
07/04/2022 07:43 11,0 C 78 % 1011,9 hPa 0,0 mm 0,0 km/h SE 138 0 min 0 min 0,000 mm 0,0 UV-I 12 W/m 7,3 C 11,0 C 0,0 km/h 100,00 %
07/04/2022 07:42 11,1 C 78 % 1011,8 hPa 0,0 mm 0,0 km/h SE 138 0 min 0 min 0,000 mm 0,0 UV-I 12 W/m 7,4 C 11,1 C 0,0 km/h 97,30 %
07/04/2022 07:41 11,1 C 78 % 1011,8 hPa 0,0 mm 0,0 km/h SE 138 0 min 0 min 0,000 mm 0,0 UV-I 12 W/m 7,4 C 11,1 C 0,0 km/h 97,76 %
07/04/2022 07:40 11,1 C 78 % 1011,8 hPa 0,0 mm 0,0 km/h SE 138 0 min 0 min 0,000 mm 0,0 UV-I 12 W/m 7,4 C 11,1 C 0,0 km/h 96,43 %
07/04/2022 07:39 11,1 C 78 % 1011,8 hPa 0,0 mm 0,0 km/h SE 138 0 min 0 min 0,000 mm 0,0 UV-I 12 W/m 7,4 C 11,1 C 0,0 km/h 100,00 %
07/04/2022 07:38 11,1 C 78 % 1011,9 hPa 0,0 mm 0,0 km/h SE 138 0 min 0 min 0,000 mm 0,0 UV-I 12 W/m 7,4 C 11,1 C 0,0 km/h 96,15 %
07/04/2022 07:37 11,1 C 78 % 1011,9 hPa 0,0 mm 0,0 km/h SE 138 0 min 0 min 0,000 mm 0,0 UV-I 11 W/m 7,4 C 11,1 C 0,0 km/h 92,59 %
07/04/2022 07:36 11,1 C 78 % 1011,9 hPa 0,0 mm 0,0 km/h SE 138 0 min 0 min 0,000 mm 0,0 UV-I 11 W/m 7,4 C 11,1 C 0,0 km/h 100,00 %
07/04/2022 07:35 11,1 C 78 % 1011,9 hPa 0,0 mm 0,0 km/h SE 138 0 min 0 min 0,000 mm 0,0 UV-I 11 W/m 7,4 C 11,1 C 0,0 km/h 88,89 %
07/04/2022 07:34 11,1 C 78 % 1012,0 hPa 0,0 mm 0,0 km/h SE 138 0 min 0 min 0,000 mm 0,0 UV-I 9 W/m 7,4 C 11,1 C 0,0 km/h 100,00 %
07/04/2022 07:33 11,1 C 78 % 1011,9 hPa 0,0 mm 0,0 km/h SE 138 0 min 0 min 0,000 mm 0,0 UV-I 9 W/m 7,4 C 11,1 C 0,0 km/h 91,67 %
07/04/2022 07:32 11,1 C 78 % 1011,9 hPa 0,0 mm 0,0 km/h SE 138 0 min 0 min 0,000 mm 0,0 UV-I 8 W/m 7,4 C 11,1 C 0,0 km/h 92,00 %
07/04/2022 07:31 11,1 C 78 % 1011,9 hPa 0,0 mm 0,0 km/h SE 138 0 min 0 min 0,000 mm 0,0 UV-I 7 W/m 7,4 C 11,1 C 0,0 km/h 95,83 %
07/04/2022 07:30 11,1 C 78 % 1011,9 hPa 0,0 mm 0,0 km/h SE 138 0 min 0 min 0,000 mm 0,0 UV-I 5 W/m 7,4 C 11,1 C 0,0 km/h 96,15 %
07/04/2022 07:29 11,1 C 78 % 1011,9 hPa 0,0 mm 1,9 km/h SE 138 0 min 0 min 0,000 mm 0,0 UV-I 5 W/m 7,4 C 11,1 C 5,3 km/h 81,82 %
07/04/2022 07:28 11,1 C 78 % 1012,0 hPa 0,0 mm 1,5 km/h SE 146 0 min 0 min 0,000 mm 0,0 UV-I 3 W/m 7,4 C 11,1 C 3,5 km/h 92,00 %
07/04/2022 07:27 11,1 C 78 % 1011,9 hPa 0,0 mm 0,0 km/h S-SE 165 0 min 0 min 0,000 mm 0,0 UV-I 0 W/m 7,4 C 11,1 C 0,0 km/h 95,83 %
07/04/2022 07:26 11,1 C 78 % 1012,0 hPa 0,0 mm 0,1 km/h S-SE 165 0 min 0 min 0,000 mm 0,0 UV-I 0 W/m 7,4 C 11,1 C 1,8 km/h 96,00 %
07/04/2022 07:25 11,1 C 78 % 1012,1 hPa 0,0 mm 0,7 km/h S-SE 165 0 min 0 min 0,000 mm 0,0 UV-I 0 W/m 7,4 C 11,1 C 3,5 km/h 95,65 %
07/04/2022 07:24 11,1 C 78 % 1012,1 hPa 0,0 mm 0,0 km/h S-SE 163 0 min 0 min 0,000 mm 0,0 UV-I 0 W/m 7,4 C 11,1 C 0,0 km/h 95,65 %
07/04/2022 07:23 11,1 C 78 % 1012,0 hPa 0,0 mm 0,0 km/h S-SE 163 0 min 0 min 0,000 mm 0,0 UV-I 0 W/m 7,4 C 11,1 C 0,0 km/h 96,00 %
07/04/2022 07:22 11,1 C 78 % 1011,9 hPa 0,0 mm 0,0 km/h S-SE 163 0 min 0 min 0,000 mm 0,0 UV-I 0 W/m 7,4 C 11,1 C 0,0 km/h 96,30 %
07/04/2022 07:21 11,1 C 78 % 1011,9 hPa 0,0 mm 0,0 km/h S-SE 163 0 min 0 min 0,000 mm 0,0 UV-I 0 W/m 7,4 C 11,1 C 0,0 km/h 96,30 %
07/04/2022 07:20 11,1 C 78 % 1011,9 hPa 0,0 mm 0,0 km/h S-SE 163 0 min 0 min 0,000 mm 0,0 UV-I 0 W/m 7,4 C 11,1 C 0,0 km/h 91,67 %
07/04/2022 07:19 11,1 C 78 % 1011,8 hPa 0,0 mm 0,0 km/h S-SE 163 0 min 0 min 0,000 mm 0,0 UV-I 0 W/m 7,4 C 11,1 C 0,0 km/h 100,00 %
07/04/2022 07:18 11,1 C 78 % 1011,8 hPa 0,0 mm 0,0 km/h S-SE 163 0 min 0 min 0,000 mm 0,0 UV-I 0 W/m 7,4 C 11,1 C 0,0 km/h 92,86 %
07/04/2022 07:17 11,1 C 78 % 1011,7 hPa 0,0 mm 0,7 km/h S-SE 163 0 min 0 min 0,000 mm 0,0 UV-I 0 W/m 7,4 C 11,1 C 1,8 km/h 100,00 %
07/04/2022 07:16 11,1 C 78 % 1011,6 hPa 0,0 mm 0,1 km/h S-SE 165 0 min 0 min 0,000 mm 0,0 UV-I 0 W/m 7,4 C 11,1 C 1,8 km/h 92,00 %
07/04/2022 07:15 11,1 C 78 % 1011,7 hPa 0,0 mm 0,0 km/h S 171 0 min 0 min 0,000 mm 0,0 UV-I 0 W/m 7,4 C 11,1 C 0,0 km/h 92,31 %
07/04/2022 07:14 11,0 C 78 % 1011,7 hPa 0,0 mm 0,0 km/h S 171 0 min 0 min 0,000 mm 0,0 UV-I 0 W/m 7,3 C 11,0 C 0,0 km/h 100,00 %
07/04/2022 07:13 11,0 C 78 % 1011,8 hPa 0,0 mm 0,0 km/h O-SO 254 0 min 0 min 0,000 mm 0,0 UV-I 0 W/m 7,3 C 11,0 C 0,0 km/h 95,83 %
07/04/2022 07:12 10,9 C 78 % 1011,8 hPa 0,0 mm 0,0 km/h O-SO 255 0 min 0 min 0,000 mm 0,0 UV-I 0 W/m 7,2 C 10,9 C 0,0 km/h 95,83 %
07/04/2022 07:11 10,9 C 79 % 1011,8 hPa 0,0 mm 0,0 km/h O-SO 255 0 min 0 min 0,000 mm 0,0 UV-I 0 W/m 7,4 C 10,9 C 0,0 km/h 100,00 %
07/04/2022 07:10 10,9 C 79 % 1011,8 hPa 0,0 mm 1,0 km/h O-SO 255 0 min 0 min 0,000 mm 0,0 UV-I 0 W/m 7,4 C 10,9 C 5,3 km/h 100,00 %
07/04/2022 07:09 10,9 C 79 % 1011,8 hPa 0,0 mm 0,2 km/h O-SO 242 0 min 0 min 0,000 mm 0,0 UV-I 0 W/m 7,4 C 10,9 C 1,8 km/h 95,83 %
07/04/2022 07:08 10,9 C 79 % 1011,7 hPa 0,0 mm 0,4 km/h O-SO 248 0 min 0 min 0,000 mm 0,0 UV-I 0 W/m 7,4 C 10,9 C 1,8 km/h 100,00 %
07/04/2022 07:07 10,9 C 79 % 1011,6 hPa 0,0 mm 0,1 km/h O-NO 286 0 min 0 min 0,000 mm 0,0 UV-I 0 W/m 7,4 C 10,9 C 1,8 km/h 96,00 %
07/04/2022 07:06 10,9 C 79 % 1011,5 hPa 0,0 mm 0,0 km/h O-NO 286 0 min 0 min 0,000 mm 0,0 UV-I 0 W/m 7,4 C 10,9 C 0,0 km/h 100,00 %
07/04/2022 07:05 10,8 C 79 % 1011,5 hPa 0,0 mm 0,0 km/h O-NO 286 0 min 0 min 0,000 mm 0,0 UV-I 0 W/m 7,3 C 10,8 C 0,0 km/h 96,55 %
07/04/2022 07:04 10,8 C 79 % 1011,5 hPa 0,0 mm 0,0 km/h O-NO 286 0 min 0 min 0,000 mm 0,0 UV-I 0 W/m 7,3 C 10,8 C 0,0 km/h 92,86 %
07/04/2022 07:03 10,8 C 79 % 1011,5 hPa 0,0 mm 0,0 km/h O-NO 282 0 min 0 min 0,000 mm 0,0 UV-I 0 W/m 7,3 C 10,8 C 0,0 km/h 90,91 %
07/04/2022 07:02 10,8 C 79 % 1011,5 hPa 0,0 mm 0,2 km/h O-NO 282 0 min 0 min 0,000 mm 0,0 UV-I 0 W/m 7,3 C 10,8 C 3,5 km/h 100,00 %
07/04/2022 07:01 10,8 C 79 % 1011,5 hPa 0,0 mm 0,6 km/h O-SO 250 0 min 0 min 0,025 mm 0,0 UV-I 0 W/m 7,3 C 10,8 C 3,5 km/h 96,15 %
07/04/2022 07:00 10,8 C 80 % 1011,5 hPa 0,0 mm 0,4 km/h O-SO 250 0 min 0 min 0,000 mm 0,0 UV-I 0 W/m 7,5 C 10,8 C 1,8 km/h 100,00 %
07/04/2022 06:59 10,7 C 80 % 1011,4 hPa 0,0 mm 2,0 km/h N-NE 16 0 min 0 min 0,000 mm 0,0 UV-I 0 W/m 7,4 C 10,7 C 5,3 km/h 92,59 %
07/04/2022 06:58 10,7 C 80 % 1011,4 hPa 0,0 mm 1,7 km/h O-SO 255 0 min 0 min 0,000 mm 0,0 UV-I 0 W/m 7,4 C 10,7 C 5,3 km/h 100,00 %
07/04/2022 06:57 10,7 C 80 % 1011,5 hPa 0,0 mm 0,0 km/h O-SO 240 0 min 0 min 0,000 mm 0,0 UV-I 0 W/m 7,4 C 10,7 C 0,0 km/h 95,83 %
07/04/2022 06:56 10,7 C 80 % 1011,4 hPa 0,0 mm 1,9 km/h O-SO 240 0 min 0 min 0,000 mm 0,0 UV-I 0 W/m 7,4 C 10,7 C 5,3 km/h 100,00 %
07/04/2022 06:55 10,7 C 80 % 1011,4 hPa 0,0 mm 0,4 km/h O-SO 245 0 min 0 min 0,000 mm 0,0 UV-I 0 W/m 7,4 C 10,7 C 3,5 km/h 100,00 %
07/04/2022 06:54 10,6 C 80 % 1011,4 hPa 0,0 mm 1,8 km/h O-SO 245 0 min 0 min 0,000 mm 0,0 UV-I 0 W/m 7,3 C 10,6 C 5,3 km/h 95,83 %
07/04/2022 06:53 10,6 C 80 % 1011,4 hPa 0,0 mm 0,0 km/h SO 228 0 min 0 min 0,000 mm 0,0 UV-I 0 W/m 7,3 C 10,6 C 0,0 km/h 100,00 %
07/04/2022 06:52 10,6 C 80 % 1011,4 hPa 0,0 mm 2,4 km/h SO 224 0 min 0 min 0,000 mm 0,0 UV-I 0 W/m 7,3 C 10,6 C 5,3 km/h 100,00 %
07/04/2022 06:51 10,6 C 80 % 1011,4 hPa 0,0 mm 4,1 km/h SO 222 0 min 0 min 0,000 mm 0,0 UV-I 0 W/m 7,3 C 10,6 C 8,9 km/h 100,00 %
07/04/2022 06:50 10,6 C 80 % 1011,4 hPa 0,0 mm 0,0 km/h SO 219 0 min 0 min 0,000 mm 0,0 UV-I 0 W/m 7,3 C 10,6 C 0,0 km/h 95,83 %
07/04/2022 06:49 10,6 C 81 % 1011,4 hPa 0,0 mm 1,5 km/h SO 219 0 min 0 min 0,000 mm 0,0 UV-I 0 W/m 7,5 C 10,6 C 7,1 km/h 100,00 %
07/04/2022 06:48 10,5 C 81 % 1011,4 hPa 0,0 mm 0,0 km/h SO 233 0 min 0 min 0,000 mm 0,0 UV-I 0 W/m 7,4 C 10,5 C 0,0 km/h 100,00 %
07/04/2022 06:47 10,5 C 81 % 1011,4 hPa 0,0 mm 0,0 km/h SO 233 0 min 0 min 0,000 mm 0,0 UV-I 0 W/m 7,4 C 10,5 C 0,0 km/h 100,00 %
07/04/2022 06:46 10,5 C 81 % 1011,4 hPa 0,0 mm 0,0 km/h SO 233 0 min 0 min 0,000 mm 0,0 UV-I 0 W/m 7,4 C 10,5 C 0,0 km/h 100,00 %
07/04/2022 06:45 10,5 C 81 % 1011,3 hPa 0,0 mm 1,3 km/h SO 233 0 min 0 min 0,000 mm 0,0 UV-I 0 W/m 7,4 C 10,5 C 3,5 km/h 100,00 %
07/04/2022 06:44 10,4 C 81 % 1011,3 hPa 0,0 mm 2,2 km/h SO 235 0 min 0 min 0,000 mm 0,0 UV-I 0 W/m 7,3 C 10,4 C 5,3 km/h 100,00 %
07/04/2022 06:43 10,4 C 81 % 1011,4 hPa 0,0 mm 0,0 km/h SO 216 0 min 0 min 0,000 mm 0,0 UV-I 0 W/m 7,3 C 10,4 C 0,0 km/h 100,00 %
07/04/2022 06:42 10,4 C 81 % 1011,4 hPa 0,0 mm 0,0 km/h SO 216 0 min 0 min 0,000 mm 0,0 UV-I 0 W/m 7,3 C 10,4 C 0,0 km/h 95,65 %
07/04/2022 06:41 10,4 C 81 % 1011,4 hPa 0,0 mm 0,4 km/h S-SO 211 0 min 0 min 0,000 mm 0,0 UV-I 0 W/m 7,3 C 10,4 C 3,5 km/h 100,00 %
07/04/2022 06:40 10,3 C 81 % 1011,4 hPa 0,0 mm 3,0 km/h S-SO 208 0 min 0 min 0,000 mm 0,0 UV-I 0 W/m 7,2 C 10,3 C 5,3 km/h 100,00 %
07/04/2022 06:39 10,3 C 82 % 1011,4 hPa 0,0 mm 3,1 km/h O 261 0 min 0 min 0,000 mm 0,0 UV-I 0 W/m 7,4 C 10,3 C 7,1 km/h 100,00 %
07/04/2022 06:38 10,3 C 82 % 1011,4 hPa 0,0 mm 3,9 km/h SO 215 0 min 0 min 0,000 mm 0,0 UV-I 0 W/m 7,4 C 10,3 C 10,6 km/h 100,00 %
07/04/2022 06:37 10,2 C 82 % 1011,4 hPa 0,0 mm 5,3 km/h O-SO 254 0 min 0 min 0,000 mm 0,0 UV-I 0 W/m 7,3 C 10,2 C 10,6 km/h 96,15 %
07/04/2022 06:36 10,2 C 82 % 1011,4 hPa 0,0 mm 2,7 km/h O-SO 242 0 min 0 min 0,000 mm 0,0 UV-I 0 W/m 7,3 C 10,2 C 7,1 km/h 100,00 %
07/04/2022 06:35 10,2 C 82 % 1011,4 hPa 0,0 mm 0,0 km/h SO 229 0 min 0 min 0,000 mm 0,0 UV-I 0 W/m 7,3 C 10,2 C 0,0 km/h 95,65 %
07/04/2022 06:34 10,2 C 82 % 1011,4 hPa 0,0 mm 0,0 km/h SO 217 0 min 0 min 0,000 mm 0,0 UV-I 0 W/m 7,3 C 10,2 C 0,0 km/h 100,00 %
07/04/2022 06:33 10,2 C 82 % 1011,4 hPa 0,0 mm 0,0 km/h SO 217 0 min 0 min 0,000 mm 0,0 UV-I 0 W/m 7,3 C 10,2 C 0,0 km/h 95,83 %
07/04/2022 06:32 10,2 C 82 % 1011,4 hPa 0,0 mm 0,0 km/h O 264 0 min 0 min 0,000 mm 0,0 UV-I 0 W/m 7,3 C 10,2 C 0,0 km/h 100,00 %
07/04/2022 06:31 10,2 C 82 % 1011,4 hPa 0,0 mm 0,0 km/h SO 225 0 min 0 min 0,000 mm 0,0 UV-I 0 W/m 7,3 C 10,2 C 0,0 km/h 96,30 %
07/04/2022 06:30 10,2 C 82 % 1011,3 hPa 0,0 mm 0,0 km/h SO 222 0 min 0 min 0,000 mm 0,0 UV-I 0 W/m 7,3 C 10,2 C 0,0 km/h 100,00 %
07/04/2022 06:29 10,2 C 82 % 1011,3 hPa 0,0 mm 0,0 km/h SO 222 0 min 0 min 0,000 mm 0,0 UV-I 0 W/m 7,3 C 10,2 C 0,0 km/h 95,65 %
07/04/2022 06:28 10,2 C 82 % 1011,3 hPa 0,0 mm 0,0 km/h SO 222 0 min 0 min 0,000 mm 0,0 UV-I 0 W/m 7,3 C 10,2 C 0,0 km/h 100,00 %
07/04/2022 06:27 10,2 C 82 % 1011,3 hPa 0,0 mm 0,0 km/h SO 222 0 min 0 min 0,000 mm 0,0 UV-I 0 W/m 7,3 C 10,2 C 0,0 km/h 92,86 %
07/04/2022 06:26 10,2 C 82 % 1011,3 hPa 0,0 mm 0,0 km/h SO 222 0 min 0 min 0,000 mm 0,0 UV-I 0 W/m 7,3 C 10,2 C 0,0 km/h 100,00 %
07/04/2022 06:25 10,2 C 82 % 1011,2 hPa 0,0 mm 0,0 km/h SO 222 0 min 0 min 0,000 mm 0,0 UV-I 0 W/m 7,3 C 10,2 C 0,0 km/h 91,67 %
07/04/2022 06:24 10,2 C 82 % 1011,2 hPa 0,0 mm 0,0 km/h SO 222 0 min 0 min 0,000 mm 0,0 UV-I 0 W/m 7,3 C 10,2 C 0,0 km/h 100,00 %
07/04/2022 06:23 10,2 C 82 % 1011,2 hPa 0,0 mm 0,0 km/h SO 222 0 min 0 min 0,000 mm 0,0 UV-I 0 W/m 7,3 C 10,2 C 0,0 km/h 100,00 %
07/04/2022 06:22 10,1 C 82 % 1011,2 hPa 0,0 mm 0,0 km/h SO 222 0 min 0 min 0,000 mm 0,0 UV-I 0 W/m 7,2 C 10,1 C 0,0 km/h 100,00 %
07/04/2022 06:21 10,1 C 82 % 1011,3 hPa 0,0 mm 0,0 km/h SO 222 0 min 0 min 0,000 mm 0,0 UV-I 0 W/m 7,2 C 10,1 C 0,0 km/h 100,00 %
07/04/2022 06:20 10,1 C 82 % 1011,2 hPa 0,0 mm 0,0 km/h SO 222 0 min 0 min 0,000 mm 0,0 UV-I 0 W/m 7,2 C 10,1 C 0,0 km/h 100,00 %
07/04/2022 06:19 10,1 C 82 % 1011,2 hPa 0,0 mm 0,0 km/h SO 222 0 min 0 min 0,000 mm 0,0 UV-I 0 W/m 7,2 C 10,1 C 0,0 km/h 100,00 %
07/04/2022 06:18 10,1 C 82 % 1011,2 hPa 0,0 mm 0,0 km/h SO 222 0 min 0 min 0,000 mm 0,0 UV-I 0 W/m 7,2 C 10,1 C 0,0 km/h 100,00 %
07/04/2022 06:16 10,1 C 82 % 1011,2 hPa 0,0 mm 0,2 km/h SO 222 0 min 0 min 0,000 mm 0,0 UV-I 0 W/m 7,2 C 10,1 C 1,8 km/h 100,00 %
07/04/2022 06:15 10,1 C 82 % 1011,2 hPa 0,0 mm 0,0 km/h SO 222 0 min 0 min 0,000 mm 0,0 UV-I 0 W/m 7,2 C 10,1 C 0,0 km/h 100,00 %
07/04/2022 06:14 10,1 C 82 % 1011,2 hPa 0,0 mm 0,0 km/h SO 222 0 min 0 min 0,000 mm 0,0 UV-I 0 W/m 7,2 C 10,1 C 0,0 km/h 100,00 %
07/04/2022 06:13 10,1 C 82 % 1011,1 hPa 0,0 mm 0,5 km/h SO 222 0 min 0 min 0,000 mm 0,0 UV-I 0 W/m 7,2 C 10,1 C 1,8 km/h 100,00 %
07/04/2022 06:12 10,1 C 82 % 1011,1 hPa 0,0 mm 1,2 km/h SO 222 0 min 0 min 0,000 mm 0,0 UV-I 0 W/m 7,2 C 10,1 C 3,5 km/h 100,00 %
07/04/2022 06:11 10,1 C 82 % 1011,1 hPa 0,0 mm 0,2 km/h SO 223 0 min 0 min 0,000 mm 0,0 UV-I 0 W/m 7,2 C 10,1 C 1,8 km/h 100,00 %
07/04/2022 06:10 10,1 C 82 % 1011,1 hPa 0,0 mm 0,0 km/h SO 223 0 min 0 min 0,000 mm 0,0 UV-I 0 W/m 7,2 C 10,1 C 0,0 km/h 100,00 %
07/04/2022 06:09 10,1 C 82 % 1011,1 hPa 0,0 mm 0,1 km/h SO 223 0 min 0 min 0,000 mm 0,0 UV-I 0 W/m 7,2 C 10,1 C 1,8 km/h 100,00 %
07/04/2022 06:08 10,1 C 82 % 1011,1 hPa 0,0 mm 0,0 km/h SO 223 0 min 0 min 0,000 mm 0,0 UV-I 0 W/m 7,2 C 10,1 C 0,0 km/h 91,30 %
07/04/2022 06:07 10,1 C 82 % 1011,1 hPa 0,0 mm 0,1 km/h SO 223 0 min 0 min 0,000 mm 0,0 UV-I 0 W/m 7,2 C 10,1 C 1,8 km/h 100,00 %
07/04/2022 06:06 10,1 C 82 % 1011,1 hPa 0,0 mm 0,8 km/h SO 223 0 min 0 min 0,000 mm 0,0 UV-I 0 W/m 7,2 C 10,1 C 1,8 km/h 100,00 %
07/04/2022 06:05 10,1 C 82 % 1011,1 hPa 0,0 mm 0,0 km/h SO 223 0 min 0 min 0,000 mm 0,0 UV-I 0 W/m 7,2 C 10,1 C 0,0 km/h 100,00 %
07/04/2022 06:04 10,1 C 82 % 1011,1 hPa 0,0 mm 0,0 km/h SO 223 0 min 0 min 0,000 mm 0,0 UV-I 0 W/m 7,2 C 10,1 C 0,0 km/h 100,00 %
07/04/2022 06:03 10,1 C 82 % 1011,0 hPa 0,0 mm 0,2 km/h SO 223 0 min 0 min 0,000 mm 0,0 UV-I 0 W/m 7,2 C 10,1 C 1,8 km/h 100,00 %
07/04/2022 06:02 10,1 C 82 % 1011,1 hPa 0,0 mm 0,3 km/h SO 223 0 min 0 min 0,000 mm 0,0 UV-I 0 W/m 7,2 C 10,1 C 1,8 km/h 100,00 %
07/04/2022 06:01 10,1 C 82 % 1011,0 hPa 0,0 mm 0,4 km/h SO 223 0 min 0 min 0,026 mm 0,0 UV-I 0 W/m 7,2 C 10,1 C 1,8 km/h 88,46 %
07/04/2022 06:00 10,1 C 81 % 1011,0 hPa 0,0 mm 0,0 km/h SO 224 0 min 0 min 0,000 mm 0,0 UV-I 0 W/m 7,0 C 10,1 C 0,0 km/h 100,00 %
07/04/2022 05:59 10,1 C 81 % 1011,1 hPa 0,0 mm 0,3 km/h SO 223 0 min 0 min 0,000 mm 0,0 UV-I 0 W/m 7,0 C 10,1 C 1,8 km/h 95,65 %
07/04/2022 05:58 10,2 C 81 % 1011,1 hPa 0,0 mm 0,4 km/h SO 224 0 min 0 min 0,000 mm 0,0 UV-I 0 W/m 7,1 C 10,2 C 3,5 km/h 96,15 %
07/04/2022 05:57 10,2 C 81 % 1011,1 hPa 0,0 mm 0,0 km/h SO 224 0 min 0 min 0,000 mm 0,0 UV-I 0 W/m 7,1 C 10,2 C 0,0 km/h 93,33 %
07/04/2022 05:56 10,2 C 81 % 1011,1 hPa 0,0 mm 0,0 km/h SO 224 0 min 0 min 0,000 mm 0,0 UV-I 0 W/m 7,1 C 10,2 C 0,0 km/h 100,00 %
07/04/2022 05:55 10,2 C 81 % 1011,1 hPa 0,0 mm 0,0 km/h SO 224 0 min 0 min 0,000 mm 0,0 UV-I 0 W/m 7,1 C 10,2 C 0,0 km/h 91,67 %
07/04/2022 05:54 10,2 C 81 % 1011,1 hPa 0,0 mm 0,2 km/h SO 224 0 min 0 min 0,000 mm 0,0 UV-I 0 W/m 7,1 C 10,2 C 1,8 km/h 95,83 %
07/04/2022 05:53 10,2 C 81 % 1011,1 hPa 0,0 mm 0,2 km/h SO 224 0 min 0 min 0,000 mm 0,0 UV-I 0 W/m 7,1 C 10,2 C 1,8 km/h 96,00 %
07/04/2022 05:52 10,2 C 81 % 1011,1 hPa 0,0 mm 0,0 km/h SO 224 0 min 0 min 0,000 mm 0,0 UV-I 0 W/m 7,1 C 10,2 C 0,0 km/h 100,00 %
07/04/2022 05:51 10,2 C 81 % 1011,0 hPa 0,0 mm 0,0 km/h SO 224 0 min 0 min 0,000 mm 0,0 UV-I 0 W/m 7,1 C 10,2 C 0,0 km/h 95,83 %
07/04/2022 05:50 10,2 C 81 % 1011,0 hPa 0,0 mm 0,0 km/h SO 224 0 min 0 min 0,000 mm 0,0 UV-I 0 W/m 7,1 C 10,2 C 0,0 km/h 100,00 %
07/04/2022 05:49 10,2 C 81 % 1011,0 hPa 0,0 mm 0,0 km/h SO 224 0 min 0 min 0,000 mm 0,0 UV-I 0 W/m 7,1 C 10,2 C 0,0 km/h 95,65 %
07/04/2022 05:48 10,2 C 81 % 1011,0 hPa 0,0 mm 0,0 km/h SO 224 0 min 0 min 0,000 mm 0,0 UV-I 0 W/m 7,1 C 10,2 C 0,0 km/h 92,00 %
07/04/2022 05:47 10,2 C 81 % 1011,1 hPa 0,0 mm 0,0 km/h SO 224 0 min 0 min 0,000 mm 0,0 UV-I 0 W/m 7,1 C 10,2 C 0,0 km/h 100,00 %
07/04/2022 05:46 10,3 C 81 % 1011,0 hPa 0,0 mm 0,0 km/h SO 224 0 min 0 min 0,000 mm 0,0 UV-I 0 W/m 7,2 C 10,3 C 0,0 km/h 100,00 %
07/04/2022 05:45 10,3 C 81 % 1011,0 hPa 0,0 mm 0,0 km/h SO 224 0 min 0 min 0,000 mm 0,0 UV-I 0 W/m 7,2 C 10,3 C 0,0 km/h 100,00 %
07/04/2022 05:44 10,3 C 81 % 1011,1 hPa 0,0 mm 0,0 km/h SO 224 0 min 0 min 0,000 mm 0,0 UV-I 0 W/m 7,2 C 10,3 C 0,0 km/h 92,31 %
07/04/2022 05:43 10,3 C 81 % 1011,1 hPa 0,0 mm 0,0 km/h SO 224 0 min 0 min 0,000 mm 0,0 UV-I 0 W/m 7,2 C 10,3 C 0,0 km/h 100,00 %
07/04/2022 05:42 10,3 C 81 % 1011,0 hPa 0,0 mm 0,0 km/h SO 224 0 min 0 min 0,000 mm 0,0 UV-I 0 W/m 7,2 C 10,3 C 0,0 km/h 100,00 %
07/04/2022 05:41 10,3 C 81 % 1011,0 hPa 0,0 mm 0,0 km/h SO 224 0 min 0 min 0,000 mm 0,0 UV-I 0 W/m 7,2 C 10,3 C 0,0 km/h 100,00 %
07/04/2022 05:40 10,3 C 81 % 1010,9 hPa 0,0 mm 0,0 km/h SO 224 0 min 0 min 0,000 mm 0,0 UV-I 0 W/m 7,2 C 10,3 C 0,0 km/h 100,00 %
07/04/2022 05:39 10,3 C 81 % 1010,9 hPa 0,0 mm 0,0 km/h SO 224 0 min 0 min 0,000 mm 0,0 UV-I 0 W/m 7,2 C 10,3 C 0,0 km/h 100,00 %
07/04/2022 05:38 10,3 C 81 % 1010,9 hPa 0,0 mm 0,0 km/h SO 224 0 min 0 min 0,000 mm 0,0 UV-I 0 W/m 7,2 C 10,3 C 0,0 km/h 96,00 %
07/04/2022 05:37 10,3 C 81 % 1010,9 hPa 0,0 mm 0,0 km/h SO 224 0 min 0 min 0,000 mm 0,0 UV-I 0 W/m 7,2 C 10,3 C 0,0 km/h 100,00 %
07/04/2022 05:36 10,3 C 81 % 1010,9 hPa 0,0 mm 0,0 km/h SO 224 0 min 0 min 0,000 mm 0,0 UV-I 0 W/m 7,2 C 10,3 C 0,0 km/h 100,00 %
07/04/2022 05:35 10,3 C 81 % 1010,9 hPa 0,0 mm 0,0 km/h SO 224 0 min 0 min 0,000 mm 0,0 UV-I 0 W/m 7,2 C 10,3 C 0,0 km/h 100,00 %
07/04/2022 05:34 10,3 C 81 % 1010,9 hPa 0,0 mm 0,0 km/h SO 224 0 min 0 min 0,000 mm 0,0 UV-I 0 W/m 7,2 C 10,3 C 0,0 km/h 100,00 %
07/04/2022 05:33 10,4 C 81 % 1010,9 hPa 0,0 mm 0,0 km/h SO 224 0 min 0 min 0,000 mm 0,0 UV-I 0 W/m 7,3 C 10,4 C 0,0 km/h 100,00 %
07/04/2022 05:32 10,4 C 81 % 1010,9 hPa 0,0 mm 0,0 km/h SO 224 0 min 0 min 0,000 mm 0,0 UV-I 0 W/m 7,3 C 10,4 C 0,0 km/h 100,00 %
07/04/2022 05:31 10,4 C 81 % 1010,9 hPa 0,0 mm 0,0 km/h SO 224 0 min 0 min 0,000 mm 0,0 UV-I 0 W/m 7,3 C 10,4 C 0,0 km/h 96,00 %
07/04/2022 05:30 10,4 C 81 % 1010,9 hPa 0,0 mm 0,0 km/h SO 224 0 min 0 min 0,000 mm 0,0 UV-I 0 W/m 7,3 C 10,4 C 0,0 km/h 100,00 %
07/04/2022 05:29 10,4 C 81 % 1010,9 hPa 0,0 mm 0,0 km/h SO 224 0 min 0 min 0,000 mm 0,0 UV-I 0 W/m 7,3 C 10,4 C 0,0 km/h 98,08 %
07/04/2022 05:27 10,4 C 81 % 1010,8 hPa 0,0 mm 0,0 km/h SO 224 0 min 0 min 0,000 mm 0,0 UV-I 0 W/m 7,3 C 10,4 C 0,0 km/h 93,33 %
07/04/2022 05:26 10,4 C 81 % 1010,9 hPa 0,0 mm 0,0 km/h SO 224 0 min 0 min 0,000 mm 0,0 UV-I 0 W/m 7,3 C 10,4 C 0,0 km/h 95,83 %
07/04/2022 05:25 10,4 C 81 % 1010,9 hPa 0,0 mm 0,0 km/h SO 224 0 min 0 min 0,000 mm 0,0 UV-I 0 W/m 7,3 C 10,4 C 0,0 km/h 91,67 %
07/04/2022 05:24 10,4 C 81 % 1010,9 hPa 0,0 mm 0,0 km/h SO 224 0 min 0 min 0,000 mm 0,0 UV-I 0 W/m 7,3 C 10,4 C 0,0 km/h 96,00 %
07/04/2022 05:23 10,4 C 80 % 1011,0 hPa 0,0 mm 1,6 km/h SO 224 0 min 0 min 0,000 mm 0,0 UV-I 0 W/m 7,1 C 10,4 C 3,5 km/h 92,31 %
07/04/2022 05:22 10,4 C 80 % 1011,0 hPa 0,0 mm 1,2 km/h SO 224 0 min 0 min 0,000 mm 0,0 UV-I 0 W/m 7,1 C 10,4 C 5,3 km/h 96,30 %
07/04/2022 05:21 10,4 C 80 % 1010,9 hPa 0,0 mm 0,0 km/h N-NO 329 0 min 0 min 0,000 mm 0,0 UV-I 0 W/m 7,1 C 10,4 C 0,0 km/h 92,31 %
07/04/2022 05:20 10,4 C 80 % 1010,9 hPa 0,0 mm 0,0 km/h N-NO 329 0 min 0 min 0,000 mm 0,0 UV-I 0 W/m 7,1 C 10,4 C 0,0 km/h 96,30 %
07/04/2022 05:19 10,4 C 80 % 1010,9 hPa 0,0 mm 0,0 km/h N-NO 329 0 min 0 min 0,000 mm 0,0 UV-I 0 W/m 7,1 C 10,4 C 0,0 km/h 95,83 %
07/04/2022 05:18 10,4 C 80 % 1010,9 hPa 0,0 mm 0,0 km/h N-NO 329 0 min 0 min 0,000 mm 0,0 UV-I 0 W/m 7,1 C 10,4 C 0,0 km/h 95,83 %
07/04/2022 05:17 10,4 C 80 % 1011,0 hPa 0,0 mm 0,0 km/h N-NO 329 0 min 0 min 0,000 mm 0,0 UV-I 0 W/m 7,1 C 10,4 C 0,0 km/h 100,00 %
07/04/2022 05:16 10,4 C 80 % 1011,0 hPa 0,0 mm 0,6 km/h N-NO 329 0 min 0 min 0,000 mm 0,0 UV-I 0 W/m 7,1 C 10,4 C 1,8 km/h 91,67 %
07/04/2022 05:15 10,4 C 80 % 1011,0 hPa 0,0 mm 0,2 km/h N-NO 329 0 min 0 min 0,000 mm 0,0 UV-I 0 W/m 7,1 C 10,4 C 1,8 km/h 96,00 %
07/04/2022 05:14 10,4 C 80 % 1011,1 hPa 0,0 mm 0,1 km/h N-NO 327 0 min 0 min 0,000 mm 0,0 UV-I 0 W/m 7,1 C 10,4 C 1,8 km/h 100,00 %
07/04/2022 05:13 10,4 C 80 % 1011,1 hPa 0,0 mm 0,1 km/h N-NO 327 0 min 0 min 0,000 mm 0,0 UV-I 0 W/m 7,1 C 10,4 C 1,8 km/h 91,67 %
07/04/2022 05:12 10,4 C 80 % 1011,1 hPa 0,0 mm 0,5 km/h N-NO 327 0 min 0 min 0,000 mm 0,0 UV-I 0 W/m 7,1 C 10,4 C 3,5 km/h 100,00 %
07/04/2022 05:11 10,4 C 80 % 1011,0 hPa 0,0 mm 0,0 km/h N-NO 331 0 min 0 min 0,000 mm 0,0 UV-I 0 W/m 7,1 C 10,4 C 0,0 km/h 95,65 %
07/04/2022 05:10 10,4 C 80 % 1011,1 hPa 0,0 mm 0,0 km/h N-NO 331 0 min 0 min 0,000 mm 0,0 UV-I 0 W/m 7,1 C 10,4 C 0,0 km/h 100,00 %
07/04/2022 05:09 10,4 C 80 % 1011,1 hPa 0,0 mm 0,2 km/h N-NO 331 0 min 0 min 0,000 mm 0,0 UV-I 0 W/m 7,1 C 10,4 C 1,8 km/h 95,83 %
07/04/2022 05:08 10,4 C 80 % 1011,1 hPa 0,0 mm 0,5 km/h N-NO 331 0 min 0 min 0,000 mm 0,0 UV-I 0 W/m 7,1 C 10,4 C 1,8 km/h 100,00 %
07/04/2022 05:07 10,4 C 80 % 1011,0 hPa 0,0 mm 0,0 km/h N-NO 331 0 min 0 min 0,000 mm 0,0 UV-I 0 W/m 7,1 C 10,4 C 0,0 km/h 95,83 %
07/04/2022 05:06 10,4 C 80 % 1011,1 hPa 0,0 mm 0,0 km/h N-NO 331 0 min 0 min 0,000 mm 0,0 UV-I 0 W/m 7,1 C 10,4 C 0,0 km/h 95,83 %
07/04/2022 05:05 10,4 C 80 % 1011,0 hPa 0,0 mm 0,0 km/h N-NO 331 0 min 0 min 0,000 mm 0,0 UV-I 0 W/m 7,1 C 10,4 C 0,0 km/h 100,00 %
07/04/2022 05:04 10,4 C 80 % 1011,0 hPa 0,0 mm 0,0 km/h N-NO 331 0 min 0 min 0,000 mm 0,0 UV-I 0 W/m 7,1 C 10,4 C 0,0 km/h 95,83 %
07/04/2022 05:03 10,4 C 80 % 1011,0 hPa 0,0 mm 0,0 km/h N-NO 331 0 min 0 min 0,000 mm 0,0 UV-I 0 W/m 7,1 C 10,4 C 0,0 km/h 100,00 %
07/04/2022 05:02 10,4 C 80 % 1011,0 hPa 0,0 mm 0,0 km/h N-NO 331 0 min 0 min 0,000 mm 0,0 UV-I 0 W/m 7,1 C 10,4 C 0,0 km/h 92,86 %
07/04/2022 05:01 10,4 C 80 % 1011,0 hPa 0,0 mm 0,0 km/h N-NO 331 0 min 0 min 0,025 mm 0,0 UV-I 0 W/m 7,1 C 10,4 C 0,0 km/h 100,00 %
07/04/2022 05:00 10,4 C 80 % 1011,0 hPa 0,0 mm 0,0 km/h N-NO 331 0 min 0 min 0,000 mm 0,0 UV-I 0 W/m 7,1 C 10,4 C 0,0 km/h 92,00 %
07/04/2022 04:59 10,4 C 80 % 1010,9 hPa 0,0 mm 0,1 km/h N-NO 331 0 min 0 min 0,000 mm 0,0 UV-I 0 W/m 7,1 C 10,4 C 1,8 km/h 95,83 %
07/04/2022 04:58 10,4 C 80 % 1010,9 hPa 0,0 mm 0,0 km/h N-NO 331 0 min 0 min 0,000 mm 0,0 UV-I 0 W/m 7,1 C 10,4 C 0,0 km/h 100,00 %
07/04/2022 04:57 10,4 C 80 % 1010,9 hPa 0,0 mm 0,0 km/h N-NO 331 0 min 0 min 0,000 mm 0,0 UV-I 0 W/m 7,1 C 10,4 C 0,0 km/h 95,83 %
07/04/2022 04:56 10,5 C 80 % 1010,9 hPa 0,0 mm 0,0 km/h N-NO 331 0 min 0 min 0,000 mm 0,0 UV-I 0 W/m 7,2 C 10,5 C 0,0 km/h 100,00 %
07/04/2022 04:55 10,5 C 80 % 1010,8 hPa 0,0 mm 0,0 km/h N-NO 331 0 min 0 min 0,000 mm 0,0 UV-I 0 W/m 7,2 C 10,5 C 0,0 km/h 88,00 %
07/04/2022 04:54 10,5 C 80 % 1010,9 hPa 0,0 mm 0,0 km/h N-NO 331 0 min 0 min 0,000 mm 0,0 UV-I 0 W/m 7,2 C 10,5 C 0,0 km/h 100,00 %
07/04/2022 04:53 10,6 C 80 % 1010,8 hPa 0,0 mm 0,1 km/h N-NO 331 0 min 0 min 0,000 mm 0,0 UV-I 0 W/m 7,3 C 10,6 C 1,8 km/h 84,62 %
07/04/2022 04:52 10,6 C 80 % 1010,8 hPa 0,0 mm 0,2 km/h N-NO 331 0 min 0 min 0,000 mm 0,0 UV-I 0 W/m 7,3 C 10,6 C 1,8 km/h 100,00 %
07/04/2022 04:51 10,6 C 80 % 1010,8 hPa 0,0 mm 0,0 km/h N-NO 331 0 min 0 min 0,000 mm 0,0 UV-I 0 W/m 7,3 C 10,6 C 0,0 km/h 92,00 %
07/04/2022 04:50 10,6 C 80 % 1010,9 hPa 0,0 mm 0,4 km/h N-NO 331 0 min 0 min 0,000 mm 0,0 UV-I 0 W/m 7,3 C 10,6 C 1,8 km/h 96,15 %
07/04/2022 04:49 10,6 C 80 % 1010,8 hPa 0,0 mm 0,0 km/h N-NO 331 0 min 0 min 0,000 mm 0,0 UV-I 0 W/m 7,3 C 10,6 C 0,0 km/h 92,00 %
07/04/2022 04:48 10,6 C 80 % 1010,8 hPa 0,0 mm 0,0 km/h N-NO 331 0 min 0 min 0,000 mm 0,0 UV-I 0 W/m 7,3 C 10,6 C 0,0 km/h 95,83 %
07/04/2022 04:47 10,6 C 80 % 1010,8 hPa 0,0 mm 0,0 km/h N-NO 331 0 min 0 min 0,000 mm 0,0 UV-I 0 W/m 7,3 C 10,6 C 0,0 km/h 100,00 %
07/04/2022 04:46 10,6 C 80 % 1010,9 hPa 0,0 mm 0,0 km/h N-NO 331 0 min 0 min 0,000 mm 0,0 UV-I 0 W/m 7,3 C 10,6 C 0,0 km/h 96,30 %
07/04/2022 04:45 10,6 C 80 % 1010,8 hPa 0,0 mm 0,0 km/h N-NO 331 0 min 0 min 0,000 mm 0,0 UV-I 0 W/m 7,3 C 10,6 C 0,0 km/h 100,00 %
07/04/2022 04:44 10,6 C 80 % 1010,8 hPa 0,0 mm 0,0 km/h N-NO 331 0 min 0 min 0,000 mm 0,0 UV-I 0 W/m 7,3 C 10,6 C 0,0 km/h 96,43 %
07/04/2022 04:43 10,6 C 80 % 1010,8 hPa 0,0 mm 0,0 km/h N-NO 331 0 min 0 min 0,000 mm 0,0 UV-I 0 W/m 7,3 C 10,6 C 0,0 km/h 100,00 %
07/04/2022 04:42 10,6 C 80 % 1010,7 hPa 0,0 mm 0,0 km/h N-NO 331 0 min 0 min 0,000 mm 0,0 UV-I 0 W/m 7,3 C 10,6 C 0,0 km/h 100,00 %
07/04/2022 04:41 10,6 C 80 % 1010,7 hPa 0,0 mm 0,0 km/h N-NO 331 0 min 0 min 0,000 mm 0,0 UV-I 0 W/m 7,3 C 10,6 C 0,0 km/h 100,00 %
07/04/2022 04:40 10,6 C 80 % 1010,6 hPa 0,0 mm 0,0 km/h N-NO 331 0 min 0 min 0,000 mm 0,0 UV-I 0 W/m 7,3 C 10,6 C 0,0 km/h 95,83 %
07/04/2022 04:39 10,6 C 80 % 1010,6 hPa 0,0 mm 0,0 km/h N-NO 331 0 min 0 min 0,000 mm 0,0 UV-I 0 W/m 7,3 C 10,6 C 0,0 km/h 92,31 %
07/04/2022 04:38 10,6 C 80 % 1010,7 hPa 0,0 mm 0,0 km/h N-NO 331 0 min 0 min 0,000 mm 0,0 UV-I 0 W/m 7,3 C 10,6 C 0,0 km/h 100,00 %
07/04/2022 04:37 10,7 C 80 % 1010,7 hPa 0,0 mm 0,0 km/h N-NO 331 0 min 0 min 0,000 mm 0,0 UV-I 0 W/m 7,4 C 10,7 C 0,0 km/h 100,00 %
07/04/2022 04:36 10,6 C 80 % 1010,7 hPa 0,0 mm 0,0 km/h N-NO 331 0 min 0 min 0,000 mm 0,0 UV-I 0 W/m 7,3 C 10,6 C 0,0 km/h 100,00 %
07/04/2022 04:34 10,6 C 80 % 1010,7 hPa 0,0 mm 0,0 km/h N-NO 331 0 min 0 min 0,000 mm 0,0 UV-I 0 W/m 7,3 C 10,6 C 0,0 km/h 100,00 %
07/04/2022 04:33 10,6 C 80 % 1010,7 hPa 0,0 mm 0,0 km/h N-NO 331 0 min 0 min 0,000 mm 0,0 UV-I 0 W/m 7,3 C 10,6 C 0,0 km/h 100,00 %
07/04/2022 04:32 10,6 C 80 % 1010,7 hPa 0,0 mm 0,0 km/h N-NO 331 0 min 0 min 0,000 mm 0,0 UV-I 0 W/m 7,3 C 10,6 C 0,0 km/h 100,00 %
07/04/2022 04:31 10,6 C 80 % 1010,7 hPa 0,0 mm 0,0 km/h N-NO 331 0 min 0 min 0,000 mm 0,0 UV-I 0 W/m 7,3 C 10,6 C 0,0 km/h 100,00 %
07/04/2022 04:30 10,6 C 80 % 1010,7 hPa 0,0 mm 0,0 km/h N-NO 331 0 min 0 min 0,000 mm 0,0 UV-I 0 W/m 7,3 C 10,6 C 0,0 km/h 100,00 %
07/04/2022 04:29 10,6 C 80 % 1010,8 hPa 0,0 mm 0,0 km/h N-NO 331 0 min 0 min 0,000 mm 0,0 UV-I 0 W/m 7,3 C 10,6 C 0,0 km/h 93,75 %
07/04/2022 04:28 10,6 C 80 % 1010,7 hPa 0,0 mm 0,1 km/h N-NO 331 0 min 0 min 0,000 mm 0,0 UV-I 0 W/m 7,3 C 10,6 C 1,8 km/h 100,00 %
07/04/2022 04:27 10,6 C 81 % 1010,8 hPa 0,0 mm 0,3 km/h N-NO 331 0 min 0 min 0,000 mm 0,0 UV-I 0 W/m 7,5 C 10,6 C 1,8 km/h 100,00 %
07/04/2022 04:26 10,6 C 81 % 1010,8 hPa 0,0 mm 0,0 km/h N-NO 331 0 min 0 min 0,000 mm 0,0 UV-I 0 W/m 7,5 C 10,6 C 0,0 km/h 100,00 %
07/04/2022 04:25 10,6 C 81 % 1010,8 hPa 0,0 mm 0,0 km/h N-NO 331 0 min 0 min 0,000 mm 0,0 UV-I 0 W/m 7,5 C 10,6 C 0,0 km/h 93,75 %
07/04/2022 04:24 10,5 C 81 % 1010,9 hPa 0,0 mm 0,0 km/h N-NO 331 0 min 0 min 0,000 mm 0,0 UV-I 0 W/m 7,4 C 10,5 C 0,0 km/h 96,30 %
07/04/2022 04:23 10,5 C 81 % 1010,9 hPa 0,0 mm 0,5 km/h N-NO 331 0 min 0 min 0,000 mm 0,0 UV-I 0 W/m 7,4 C 10,5 C 1,8 km/h 96,77 %
07/04/2022 04:22 10,5 C 81 % 1010,9 hPa 0,0 mm 0,1 km/h N-NO 341 0 min 0 min 0,000 mm 0,0 UV-I 0 W/m 7,4 C 10,5 C 1,8 km/h 100,00 %
07/04/2022 04:21 10,5 C 81 % 1010,9 hPa 0,0 mm 0,1 km/h N-NO 341 0 min 0 min 0,000 mm 0,0 UV-I 0 W/m 7,4 C 10,5 C 1,8 km/h 96,30 %
07/04/2022 04:20 10,4 C 81 % 1010,9 hPa 0,0 mm 0,2 km/h N-NO 341 0 min 0 min 0,000 mm 0,0 UV-I 0 W/m 7,3 C 10,4 C 1,8 km/h 100,00 %
07/04/2022 04:19 10,4 C 81 % 1010,9 hPa 0,0 mm 0,1 km/h N-NO 341 0 min 0 min 0,000 mm 0,0 UV-I 0 W/m 7,3 C 10,4 C 1,8 km/h 93,33 %
07/04/2022 04:18 10,4 C 81 % 1010,9 hPa 0,0 mm 0,0 km/h N-NO 341 0 min 0 min 0,000 mm 0,0 UV-I 0 W/m 7,3 C 10,4 C 0,0 km/h 100,00 %
07/04/2022 04:17 10,4 C 81 % 1010,9 hPa 0,0 mm 0,3 km/h N-NO 341 0 min 0 min 0,000 mm 0,0 UV-I 0 W/m 7,3 C 10,4 C 1,8 km/h 92,31 %
07/04/2022 04:16 10,4 C 81 % 1010,9 hPa 0,0 mm 0,5 km/h N-NO 341 0 min 0 min 0,000 mm 0,0 UV-I 0 W/m 7,3 C 10,4 C 1,8 km/h 100,00 %
07/04/2022 04:15 10,4 C 82 % 1010,9 hPa 0,0 mm 0,5 km/h N-NO 347 0 min 0 min 0,000 mm 0,0 UV-I 0 W/m 7,5 C 10,4 C 1,8 km/h 96,30 %
07/04/2022 04:14 10,3 C 82 % 1010,8 hPa 0,0 mm 0,4 km/h N-NO 347 0 min 0 min 0,000 mm 0,0 UV-I 0 W/m 7,4 C 10,3 C 1,8 km/h 100,00 %
07/04/2022 04:13 10,3 C 82 % 1010,9 hPa 0,0 mm 0,6 km/h N-NO 347 0 min 0 min 0,000 mm 0,0 UV-I 0 W/m 7,4 C 10,3 C 1,8 km/h 100,00 %
07/04/2022 04:12 10,3 C 82 % 1010,9 hPa 0,0 mm 2,7 km/h N-NO 348 0 min 0 min 0,000 mm 0,0 UV-I 0 W/m 7,4 C 10,3 C 5,3 km/h 100,00 %
07/04/2022 04:11 10,3 C 82 % 1010,9 hPa 0,0 mm 0,0 km/h O-NO 290 0 min 0 min 0,000 mm 0,0 UV-I 0 W/m 7,4 C 10,3 C 0,0 km/h 100,00 %
07/04/2022 04:10 10,3 C 82 % 1011,0 hPa 0,0 mm 0,2 km/h O-NO 290 0 min 0 min 0,000 mm 0,0 UV-I 0 W/m 7,4 C 10,3 C 1,8 km/h 100,00 %
07/04/2022 04:09 10,3 C 82 % 1011,0 hPa 0,0 mm 0,7 km/h O-NO 289 0 min 0 min 0,000 mm 0,0 UV-I 0 W/m 7,4 C 10,3 C 3,5 km/h 100,00 %
07/04/2022 04:08 10,3 C 82 % 1011,0 hPa 0,0 mm 0,4 km/h O-NO 290 0 min 0 min 0,000 mm 0,0 UV-I 0 W/m 7,4 C 10,3 C 3,5 km/h 97,83 %
07/04/2022 04:07 10,2 C 82 % 1011,0 hPa 0,0 mm 1,4 km/h O-NO 289 0 min 0 min 0,000 mm 0,0 UV-I 0 W/m 7,3 C 10,2 C 3,5 km/h 98,00 %
07/04/2022 04:06 10,2 C 82 % 1011,1 hPa 0,0 mm 0,5 km/h O 273 0 min 0 min 0,000 mm 0,0 UV-I 0 W/m 7,3 C 10,2 C 1,8 km/h 100,00 %
07/04/2022 04:05 10,2 C 82 % 1011,1 hPa 0,0 mm 1,1 km/h O 273 0 min 0 min 0,000 mm 0,0 UV-I 0 W/m 7,3 C 10,2 C 3,5 km/h 100,00 %
07/04/2022 04:04 10,2 C 82 % 1011,0 hPa 0,0 mm 1,0 km/h O-NO 298 0 min 0 min 0,000 mm 0,0 UV-I 0 W/m 7,3 C 10,2 C 3,5 km/h 100,00 %
07/04/2022 04:03 10,2 C 82 % 1011,1 hPa 0,0 mm 1,1 km/h O-NO 302 0 min 0 min 0,000 mm 0,0 UV-I 0 W/m 7,3 C 10,2 C 3,5 km/h 100,00 %
07/04/2022 04:02 10,2 C 82 % 1011,1 hPa 0,0 mm 1,1 km/h O-NO 303 0 min 0 min 0,000 mm 0,0 UV-I 0 W/m 7,3 C 10,2 C 3,5 km/h 100,00 %
07/04/2022 04:01 10,2 C 82 % 1011,1 hPa 0,0 mm 1,3 km/h O-NO 296 0 min 0 min 0,000 mm 0,0 UV-I 0 W/m 7,3 C 10,2 C 8,9 km/h 100,00 %
07/04/2022 04:00 10,3 C 82 % 1011,1 hPa 0,0 mm 0,0 km/h NO 314 0 min 0 min 0,000 mm 0,0 UV-I 0 W/m 7,4 C 10,3 C 0,0 km/h 100,00 %
07/04/2022 03:59 10,3 C 82 % 1011,1 hPa 0,0 mm 0,0 km/h NO 314 0 min 0 min 0,000 mm 0,0 UV-I 0 W/m 7,4 C 10,3 C 0,0 km/h 100,00 %
07/04/2022 03:58 10,3 C 82 % 1011,1 hPa 0,0 mm 0,2 km/h NO 314 0 min 0 min 0,000 mm 0,0 UV-I 0 W/m 7,4 C 10,3 C 1,8 km/h 100,00 %
07/04/2022 03:57 10,3 C 82 % 1011,1 hPa 0,0 mm 0,3 km/h NO 314 0 min 0 min 0,000 mm 0,0 UV-I 0 W/m 7,4 C 10,3 C 1,8 km/h 96,30 %
07/04/2022 03:56 10,3 C 82 % 1011,1 hPa 0,0 mm 1,0 km/h NO 314 0 min 0 min 0,000 mm 0,0 UV-I 0 W/m 7,4 C 10,3 C 3,5 km/h 100,00 %
07/04/2022 03:55 10,3 C 82 % 1011,1 hPa 0,0 mm 0,0 km/h NO 314 0 min 0 min 0,000 mm 0,0 UV-I 0 W/m 7,4 C 10,3 C 0,0 km/h 86,67 %
07/04/2022 03:54 10,3 C 82 % 1011,1 hPa 0,0 mm 0,0 km/h NO 314 0 min 0 min 0,000 mm 0,0 UV-I 0 W/m 7,4 C 10,3 C 0,0 km/h 100,00 %
07/04/2022 03:53 10,3 C 82 % 1011,1 hPa 0,0 mm 0,0 km/h NO 314 0 min 0 min 0,000 mm 0,0 UV-I 0 W/m 7,4 C 10,3 C 0,0 km/h 100,00 %
07/04/2022 03:52 10,3 C 82 % 1011,2 hPa 0,0 mm 0,0 km/h NO 314 0 min 0 min 0,000 mm 0,0 UV-I 0 W/m 7,4 C 10,3 C 0,0 km/h 100,00 %
07/04/2022 03:51 10,3 C 82 % 1011,2 hPa 0,0 mm 0,0 km/h NO 314 0 min 0 min 0,000 mm 0,0 UV-I 0 W/m 7,4 C 10,3 C 0,0 km/h 100,00 %
07/04/2022 03:50 10,3 C 83 % 1011,2 hPa 0,0 mm 0,0 km/h NO 314 0 min 0 min 0,000 mm 0,0 UV-I 0 W/m 7,5 C 10,3 C 0,0 km/h 95,83 %
07/04/2022 03:49 10,3 C 83 % 1011,2 hPa 0,0 mm 0,0 km/h NO 314 0 min 0 min 0,000 mm 0,0 UV-I 0 W/m 7,5 C 10,3 C 0,0 km/h 100,00 %
07/04/2022 03:48 10,3 C 83 % 1011,1 hPa 0,0 mm 0,0 km/h NO 314 0 min 0 min 0,000 mm 0,0 UV-I 0 W/m 7,5 C 10,3 C 0,0 km/h 92,59 %
07/04/2022 03:47 10,2 C 83 % 1011,1 hPa 0,0 mm 0,0 km/h NO 314 0 min 0 min 0,000 mm 0,0 UV-I 0 W/m 7,4 C 10,2 C 0,0 km/h 96,55 %
07/04/2022 03:46 10,3 C 83 % 1011,1 hPa 0,0 mm 0,0 km/h NO 314 0 min 0 min 0,000 mm 0,0 UV-I 0 W/m 7,5 C 10,3 C 0,0 km/h 100,00 %
07/04/2022 03:45 10,2 C 83 % 1011,1 hPa 0,0 mm 0,0 km/h NO 314 0 min 0 min 0,000 mm 0,0 UV-I 0 W/m 7,4 C 10,2 C 0,0 km/h 96,55 %
07/04/2022 03:44 10,2 C 83 % 1011,1 hPa 0,0 mm 0,0 km/h NO 314 0 min 0 min 0,000 mm 0,0 UV-I 0 W/m 7,4 C 10,2 C 0,0 km/h 94,74 %
07/04/2022 03:43 10,2 C 83 % 1011,1 hPa 0,0 mm 0,0 km/h NO 314 0 min 0 min 0,000 mm 0,0 UV-I 0 W/m 7,4 C 10,2 C 0,0 km/h 96,67 %
07/04/2022 03:42 10,2 C 83 % 1011,1 hPa 0,0 mm 0,0 km/h NO 314 0 min 0 min 0,000 mm 0,0 UV-I 0 W/m 7,4 C 10,2 C 0,0 km/h 100,00 %
07/04/2022 03:41 10,2 C 83 % 1011,1 hPa 0,0 mm 0,0 km/h NO 314 0 min 0 min 0,000 mm 0,0 UV-I 0 W/m 7,4 C 10,2 C 0,0 km/h 100,00 %
07/04/2022 03:40 10,2 C 83 % 1011,0 hPa 0,0 mm 0,0 km/h NO 314 0 min 0 min 0,000 mm 0,0 UV-I 0 W/m 7,4 C 10,2 C 0,0 km/h 100,00 %
07/04/2022 03:39 10,2 C 83 % 1011,0 hPa 0,0 mm 0,0 km/h NO 314 0 min 0 min 0,000 mm 0,0 UV-I 0 W/m 7,4 C 10,2 C 0,0 km/h 100,00 %
07/04/2022 03:38 10,2 C 83 % 1011,0 hPa 0,0 mm 0,0 km/h NO 314 0 min 0 min 0,000 mm 0,0 UV-I 0 W/m 7,4 C 10,2 C 0,0 km/h 100,00 %
07/04/2022 03:37 10,2 C 83 % 1011,0 hPa 0,0 mm 0,0 km/h NO 314 0 min 0 min 0,000 mm 0,0 UV-I 0 W/m 7,4 C 10,2 C 0,0 km/h 100,00 %
07/04/2022 03:36 10,1 C 83 % 1011,0 hPa 0,0 mm 0,0 km/h NO 314 0 min 0 min 0,000 mm 0,0 UV-I 0 W/m 7,3 C 10,1 C 0,0 km/h 96,30 %
07/04/2022 03:35 10,1 C 83 % 1011,0 hPa 0,0 mm 0,0 km/h NO 314 0 min 0 min 0,000 mm 0,0 UV-I 0 W/m 7,3 C 10,1 C 0,0 km/h 100,00 %
07/04/2022 03:34 10,1 C 83 % 1011,0 hPa 0,0 mm 0,0 km/h NO 314 0 min 0 min 0,000 mm 0,0 UV-I 0 W/m 7,3 C 10,1 C 0,0 km/h 100,00 %
07/04/2022 03:33 10,1 C 83 % 1011,0 hPa 0,0 mm 0,0 km/h NO 314 0 min 0 min 0,000 mm 0,0 UV-I 0 W/m 7,3 C 10,1 C 0,0 km/h 100,00 %
07/04/2022 03:32 10,0 C 84 % 1011,0 hPa 0,0 mm 0,1 km/h NO 314 0 min 0 min 0,000 mm 0,0 UV-I 0 W/m 7,4 C 10,0 C 1,8 km/h 100,00 %
07/04/2022 03:31 10,0 C 84 % 1011,0 hPa 0,0 mm 0,0 km/h NO 314 0 min 0 min 0,000 mm 0,0 UV-I 0 W/m 7,4 C 10,0 C 0,0 km/h 100,00 %
07/04/2022 03:30 9,9 C 84 % 1011,0 hPa 0,0 mm 0,0 km/h NO 314 0 min 0 min 0,000 mm 0,0 UV-I 0 W/m 7,3 C 9,9 C 0,0 km/h 100,00 %
07/04/2022 03:29 9,9 C 84 % 1011,0 hPa 0,0 mm 0,6 km/h NO 314 0 min 0 min 0,000 mm 0,0 UV-I 0 W/m 7,3 C 9,9 C 1,8 km/h 100,00 %
07/04/2022 03:28 9,9 C 84 % 1011,0 hPa 0,0 mm 1,2 km/h NO 314 0 min 0 min 0,000 mm 0,0 UV-I 0 W/m 7,3 C 9,9 C 3,5 km/h 100,00 %
07/04/2022 03:27 9,8 C 84 % 1011,0 hPa 0,0 mm 0,4 km/h O-NO 291 0 min 0 min 0,000 mm 0,0 UV-I 0 W/m 7,2 C 9,8 C 1,8 km/h 100,00 %
07/04/2022 03:26 9,8 C 84 % 1011,0 hPa 0,0 mm 0,9 km/h O-NO 292 0 min 0 min 0,000 mm 0,0 UV-I 0 W/m 7,2 C 9,8 C 3,5 km/h 97,83 %
07/04/2022 03:25 9,8 C 84 % 1011,0 hPa 0,0 mm 1,1 km/h O-NO 292 0 min 0 min 0,000 mm 0,0 UV-I 0 W/m 7,2 C 9,8 C 1,8 km/h 100,00 %
07/04/2022 03:24 9,8 C 84 % 1011,0 hPa 0,0 mm 0,7 km/h O-NO 292 0 min 0 min 0,000 mm 0,0 UV-I 0 W/m 7,2 C 9,8 C 1,8 km/h 100,00 %
07/04/2022 03:23 9,7 C 85 % 1011,0 hPa 0,0 mm 0,0 km/h O-NO 292 0 min 0 min 0,000 mm 0,0 UV-I 0 W/m 7,3 C 9,7 C 0,0 km/h 100,00 %
07/04/2022 03:22 9,7 C 85 % 1011,0 hPa 0,0 mm 1,8 km/h O-NO 292 0 min 0 min 0,000 mm 0,0 UV-I 0 W/m 7,3 C 9,7 C 3,5 km/h 100,00 %
07/04/2022 03:21 9,7 C 85 % 1011,1 hPa 0,0 mm 0,2 km/h O-NO 282 0 min 0 min 0,000 mm 0,0 UV-I 0 W/m 7,3 C 9,7 C 1,8 km/h 100,00 %
07/04/2022 03:20 9,7 C 85 % 1011,1 hPa 0,0 mm 0,9 km/h O-NO 282 0 min 0 min 0,000 mm 0,0 UV-I 0 W/m 7,3 C 9,7 C 3,5 km/h 100,00 %
07/04/2022 03:19 9,7 C 85 % 1011,1 hPa 0,0 mm 0,1 km/h O-NO 282 0 min 0 min 0,000 mm 0,0 UV-I 0 W/m 7,3 C 9,7 C 1,8 km/h 95,83 %
07/04/2022 03:18 9,7 C 85 % 1011,1 hPa 0,0 mm 0,3 km/h O-NO 282 0 min 0 min 0,000 mm 0,0 UV-I 0 W/m 7,3 C 9,7 C 1,8 km/h 96,00 %
07/04/2022 03:17 9,7 C 85 % 1011,2 hPa 0,0 mm 0,7 km/h O-NO 282 0 min 0 min 0,000 mm 0,0 UV-I 0 W/m 7,3 C 9,7 C 3,5 km/h 100,00 %
07/04/2022 03:16 9,7 C 85 % 1011,1 hPa 0,0 mm 0,3 km/h O-NO 282 0 min 0 min 0,000 mm 0,0 UV-I 0 W/m 7,3 C 9,7 C 1,8 km/h 96,00 %
07/04/2022 03:15 9,7 C 85 % 1011,1 hPa 0,0 mm 1,2 km/h O-NO 282 0 min 0 min 0,000 mm 0,0 UV-I 0 W/m 7,3 C 9,7 C 1,8 km/h 96,43 %
07/04/2022 03:14 9,7 C 85 % 1011,2 hPa 0,0 mm 0,2 km/h O-NO 282 0 min 0 min 0,000 mm 0,0 UV-I 0 W/m 7,3 C 9,7 C 1,8 km/h 100,00 %
07/04/2022 03:13 9,6 C 85 % 1011,2 hPa 0,0 mm 0,0 km/h O-NO 282 0 min 0 min 0,000 mm 0,0 UV-I 0 W/m 7,2 C 9,6 C 0,0 km/h 95,83 %
07/04/2022 03:12 9,6 C 85 % 1011,1 hPa 0,0 mm 0,0 km/h O-NO 282 0 min 0 min 0,000 mm 0,0 UV-I 0 W/m 7,2 C 9,6 C 0,0 km/h 95,83 %
07/04/2022 03:11 9,6 C 85 % 1011,2 hPa 0,0 mm 0,0 km/h O-NO 282 0 min 0 min 0,000 mm 0,0 UV-I 0 W/m 7,2 C 9,6 C 0,0 km/h 96,00 %
07/04/2022 03:10 9,6 C 85 % 1011,2 hPa 0,0 mm 0,0 km/h O-NO 282 0 min 0 min 0,000 mm 0,0 UV-I 0 W/m 7,2 C 9,6 C 0,0 km/h 95,83 %
07/04/2022 03:09 9,6 C 85 % 1011,2 hPa 0,0 mm 0,0 km/h O-NO 282 0 min 0 min 0,000 mm 0,0 UV-I 0 W/m 7,2 C 9,6 C 0,0 km/h 100,00 %
07/04/2022 03:08 9,6 C 86 % 1011,2 hPa 0,0 mm 0,0 km/h O-NO 282 0 min 0 min 0,000 mm 0,0 UV-I 0 W/m 7,4 C 9,6 C 0,0 km/h 96,30 %
07/04/2022 03:07 9,6 C 86 % 1011,2 hPa 0,0 mm 0,0 km/h O-NO 282 0 min 0 min 0,000 mm 0,0 UV-I 0 W/m 7,4 C 9,6 C 0,0 km/h 100,00 %
07/04/2022 03:06 9,6 C 86 % 1011,2 hPa 0,0 mm 0,0 km/h O-NO 282 0 min 0 min 0,000 mm 0,0 UV-I 0 W/m 7,4 C 9,6 C 0,0 km/h 100,00 %
07/04/2022 03:05 9,6 C 86 % 1011,2 hPa 0,0 mm 0,0 km/h O-NO 282 0 min 0 min 0,000 mm 0,0 UV-I 0 W/m 7,4 C 9,6 C 0,0 km/h 95,83 %
07/04/2022 03:04 9,5 C 86 % 1011,2 hPa 0,0 mm 0,0 km/h O-NO 282 0 min 0 min 0,000 mm 0,0 UV-I 0 W/m 7,3 C 9,5 C 0,0 km/h 100,00 %
07/04/2022 03:03 9,5 C 86 % 1011,2 hPa 0,0 mm 0,0 km/h O-NO 282 0 min 0 min 0,000 mm 0,0 UV-I 0 W/m 7,3 C 9,5 C 0,0 km/h 100,00 %
07/04/2022 03:02 9,5 C 86 % 1011,2 hPa 0,0 mm 0,0 km/h O-NO 282 0 min 0 min 0,000 mm 0,0 UV-I 0 W/m 7,3 C 9,5 C 0,0 km/h 95,83 %
07/04/2022 03:01 9,4 C 86 % 1011,2 hPa 0,0 mm 0,0 km/h O-NO 282 0 min 0 min 0,000 mm 0,0 UV-I 0 W/m 7,2 C 9,4 C 0,0 km/h 100,00 %
07/04/2022 03:00 9,4 C 86 % 1011,3 hPa 0,0 mm 0,0 km/h O-NO 282 0 min 0 min 0,000 mm 0,0 UV-I 0 W/m 7,2 C 9,4 C 0,0 km/h 96,15 %
07/04/2022 02:59 9,4 C 86 % 1011,3 hPa 0,0 mm 0,0 km/h O-NO 282 0 min 0 min 0,000 mm 0,0 UV-I 0 W/m 7,2 C 9,4 C 0,0 km/h 100,00 %
07/04/2022 02:58 9,4 C 86 % 1011,2 hPa 0,0 mm 0,0 km/h O-NO 282 0 min 0 min 0,000 mm 0,0 UV-I 0 W/m 7,2 C 9,4 C 1,8 km/h 95,92 %
07/04/2022 02:56 9,3 C 86 % 1011,2 hPa 0,0 mm 0,0 km/h O-NO 282 0 min 0 min 0,000 mm 0,0 UV-I 0 W/m 7,1 C 9,3 C 0,0 km/h 100,00 %
07/04/2022 02:55 9,3 C 87 % 1011,2 hPa 0,0 mm 0,0 km/h O-NO 282 0 min 0 min 0,000 mm 0,0 UV-I 0 W/m 7,2 C 9,3 C 0,0 km/h 95,65 %
07/04/2022 02:54 9,3 C 87 % 1011,2 hPa 0,0 mm 0,0 km/h O-NO 282 0 min 0 min 0,000 mm 0,0 UV-I 0 W/m 7,2 C 9,3 C 0,0 km/h 100,00 %
07/04/2022 02:53 9,3 C 87 % 1011,3 hPa 0,0 mm 0,0 km/h O-NO 282 0 min 0 min 0,000 mm 0,0 UV-I 0 W/m 7,2 C 9,3 C 0,0 km/h 95,83 %
07/04/2022 02:52 9,3 C 87 % 1011,3 hPa 0,0 mm 0,0 km/h O-NO 282 0 min 0 min 0,000 mm 0,0 UV-I 0 W/m 7,2 C 9,3 C 0,0 km/h 96,00 %
07/04/2022 02:51 9,2 C 87 % 1011,3 hPa 0,0 mm 0,0 km/h O-NO 282 0 min 0 min 0,000 mm 0,0 UV-I 0 W/m 7,2 C 9,2 C 0,0 km/h 100,00 %
07/04/2022 02:50 9,2 C 87 % 1011,2 hPa 0,0 mm 0,0 km/h O-NO 282 0 min 0 min 0,000 mm 0,0 UV-I 0 W/m 7,2 C 9,2 C 0,0 km/h 95,83 %
07/04/2022 02:49 9,2 C 87 % 1011,2 hPa 0,0 mm 0,0 km/h O-NO 282 0 min 0 min 0,000 mm 0,0 UV-I 0 W/m 7,2 C 9,2 C 0,0 km/h 96,55 %
07/04/2022 02:48 9,2 C 87 % 1011,2 hPa 0,0 mm 0,0 km/h O-NO 282 0 min 0 min 0,000 mm 0,0 UV-I 0 W/m 7,2 C 9,2 C 0,0 km/h 92,86 %
07/04/2022 02:47 9,1 C 87 % 1011,2 hPa 0,0 mm 0,0 km/h O-NO 282 0 min 0 min 0,000 mm 0,0 UV-I 0 W/m 7,1 C 9,1 C 0,0 km/h 95,83 %
07/04/2022 02:45 9,1 C 87 % 1011,2 hPa 0,0 mm 0,0 km/h O-NO 282 0 min 0 min 0,000 mm 0,0 UV-I 0 W/m 7,1 C 9,1 C 0,0 km/h 100,00 %
07/04/2022 02:44 9,1 C 87 % 1011,2 hPa 0,0 mm 0,0 km/h O-NO 282 0 min 0 min 0,000 mm 0,0 UV-I 0 W/m 7,1 C 9,1 C 0,0 km/h 91,67 %
07/04/2022 02:43 9,0 C 87 % 1011,3 hPa 0,0 mm 0,8 km/h O-NO 282 0 min 0 min 0,000 mm 0,0 UV-I 0 W/m 7,0 C 9,0 C 3,5 km/h 95,83 %
07/04/2022 02:42 8,9 C 87 % 1011,3 hPa 0,0 mm 0,0 km/h N-NO 336 0 min 0 min 0,000 mm 0,0 UV-I 0 W/m 6,9 C 8,9 C 0,0 km/h 91,67 %
07/04/2022 02:41 8,9 C 87 % 1011,3 hPa 0,0 mm 0,0 km/h N-NO 336 0 min 0 min 0,000 mm 0,0 UV-I 0 W/m 6,9 C 8,9 C 0,0 km/h 100,00 %
07/04/2022 02:40 8,9 C 87 % 1011,3 hPa 0,0 mm 0,0 km/h N-NO 336 0 min 0 min 0,000 mm 0,0 UV-I 0 W/m 6,9 C 8,9 C 0,0 km/h 92,00 %
07/04/2022 02:39 8,9 C 87 % 1011,3 hPa 0,0 mm 0,0 km/h N-NO 336 0 min 0 min 0,000 mm 0,0 UV-I 0 W/m 6,9 C 8,9 C 0,0 km/h 92,31 %
07/04/2022 02:38 8,8 C 87 % 1011,3 hPa 0,0 mm 0,0 km/h N-NO 336 0 min 0 min 0,000 mm 0,0 UV-I 0 W/m 6,8 C 8,8 C 0,0 km/h 96,00 %
07/04/2022 02:37 8,8 C 87 % 1011,3 hPa 0,0 mm 0,0 km/h N-NO 336 0 min 0 min 0,000 mm 0,0 UV-I 0 W/m 6,8 C 8,8 C 0,0 km/h 91,67 %
07/04/2022 02:36 8,8 C 87 % 1011,3 hPa 0,0 mm 0,0 km/h N-NO 336 0 min 0 min 0,000 mm 0,0 UV-I 0 W/m 6,8 C 8,8 C 0,0 km/h 100,00 %
07/04/2022 02:35 8,8 C 87 % 1011,3 hPa 0,0 mm 0,0 km/h N-NO 336 0 min 0 min 0,000 mm 0,0 UV-I 0 W/m 6,8 C 8,8 C 0,0 km/h 96,00 %
07/04/2022 02:34 8,7 C 87 % 1011,3 hPa 0,0 mm 0,2 km/h N-NO 336 0 min 0 min 0,000 mm 0,0 UV-I 0 W/m 6,7 C 8,7 C 1,8 km/h 100,00 %
07/04/2022 02:33 8,7 C 87 % 1011,3 hPa 0,0 mm 0,0 km/h N-NO 336 0 min 0 min 0,000 mm 0,0 UV-I 0 W/m 6,7 C 8,7 C 0,0 km/h 100,00 %
07/04/2022 02:32 8,7 C 87 % 1011,3 hPa 0,0 mm 0,0 km/h N-NO 336 0 min 0 min 0,000 mm 0,0 UV-I 0 W/m 6,7 C 8,7 C 0,0 km/h 100,00 %
07/04/2022 02:31 8,7 C 87 % 1011,3 hPa 0,0 mm 0,0 km/h N-NO 336 0 min 0 min 0,000 mm 0,0 UV-I 0 W/m 6,7 C 8,7 C 0,0 km/h 92,00 %
07/04/2022 02:30 8,6 C 87 % 1011,2 hPa 0,0 mm 0,0 km/h N-NO 336 0 min 0 min 0,000 mm 0,0 UV-I 0 W/m 6,6 C 8,6 C 0,0 km/h 96,15 %
07/04/2022 02:29 8,6 C 87 % 1011,3 hPa 0,0 mm 0,2 km/h N-NO 336 0 min 0 min 0,000 mm 0,0 UV-I 0 W/m 6,6 C 8,6 C 1,8 km/h 100,00 %
07/04/2022 02:28 8,6 C 87 % 1011,3 hPa 0,0 mm 0,4 km/h N-NO 336 0 min 0 min 0,000 mm 0,0 UV-I 0 W/m 6,6 C 8,6 C 1,8 km/h 92,00 %
07/04/2022 02:27 8,5 C 87 % 1011,4 hPa 0,0 mm 0,1 km/h N-NO 336 0 min 0 min 0,000 mm 0,0 UV-I 0 W/m 6,5 C 8,5 C 1,8 km/h 100,00 %
07/04/2022 02:26 8,5 C 87 % 1011,3 hPa 0,0 mm 0,4 km/h N-NO 336 0 min 0 min 0,000 mm 0,0 UV-I 0 W/m 6,5 C 8,5 C 1,8 km/h 96,30 %
07/04/2022 02:25 8,5 C 87 % 1011,3 hPa 0,0 mm 0,0 km/h N-NO 336 0 min 0 min 0,000 mm 0,0 UV-I 0 W/m 6,5 C 8,5 C 0,0 km/h 100,00 %
07/04/2022 02:24 8,4 C 87 % 1011,4 hPa 0,0 mm 0,0 km/h N-NO 336 0 min 0 min 0,000 mm 0,0 UV-I 0 W/m 6,4 C 8,4 C 0,0 km/h 95,92 %
07/04/2022 02:22 8,4 C 87 % 1011,4 hPa 0,0 mm 0,1 km/h N-NO 336 0 min 0 min 0,000 mm 0,0 UV-I 0 W/m 6,4 C 8,4 C 1,8 km/h 96,30 %
07/04/2022 02:21 8,4 C 87 % 1011,4 hPa 0,0 mm 0,0 km/h N-NO 336 0 min 0 min 0,000 mm 0,0 UV-I 0 W/m 6,4 C 8,4 C 1,8 km/h 97,67 %
07/04/2022 02:19 8,4 C 87 % 1011,3 hPa 0,0 mm 0,0 km/h N-NO 336 0 min 0 min 0,000 mm 0,0 UV-I 0 W/m 6,4 C 8,4 C 0,0 km/h 96,00 %
07/04/2022 02:18 8,4 C 87 % 1011,3 hPa 0,0 mm 0,0 km/h N-NO 336 0 min 0 min 0,000 mm 0,0 UV-I 0 W/m 6,4 C 8,4 C 0,0 km/h 100,00 %
07/04/2022 02:17 8,4 C 87 % 1011,4 hPa 0,0 mm 0,0 km/h N-NO 336 0 min 0 min 0,000 mm 0,0 UV-I 0 W/m 6,4 C 8,4 C 0,0 km/h 91,67 %
07/04/2022 02:16 8,4 C 86 % 1011,4 hPa 0,0 mm 0,1 km/h N-NO 336 0 min 0 min 0,000 mm 0,0 UV-I 0 W/m 6,2 C 8,4 C 1,8 km/h 100,00 %
07/04/2022 02:15 8,4 C 86 % 1011,4 hPa 0,0 mm 0,0 km/h N-NO 336 0 min 0 min 0,000 mm 0,0 UV-I 0 W/m 6,2 C 8,4 C 0,0 km/h 95,83 %
07/04/2022 02:14 8,4 C 86 % 1011,4 hPa 0,0 mm 0,0 km/h N-NO 336 0 min 0 min 0,000 mm 0,0 UV-I 0 W/m 6,2 C 8,4 C 0,0 km/h 96,00 %
07/04/2022 02:13 8,4 C 86 % 1011,4 hPa 0,0 mm 0,0 km/h N-NO 336 0 min 0 min 0,000 mm 0,0 UV-I 0 W/m 6,2 C 8,4 C 0,0 km/h 100,00 %
07/04/2022 02:12 8,4 C 86 % 1011,4 hPa 0,0 mm 0,0 km/h N-NO 336 0 min 0 min 0,000 mm 0,0 UV-I 0 W/m 6,2 C 8,4 C 0,0 km/h 95,83 %
07/04/2022 02:11 8,4 C 86 % 1011,4 hPa 0,0 mm 0,4 km/h N-NO 336 0 min 0 min 0,000 mm 0,0 UV-I 0 W/m 6,2 C 8,4 C 1,8 km/h 96,00 %
07/04/2022 02:10 8,4 C 86 % 1011,4 hPa 0,0 mm 0,2 km/h N-NO 336 0 min 0 min 0,000 mm 0,0 UV-I 0 W/m 6,2 C 8,4 C 1,8 km/h 95,83 %
07/04/2022 02:09 8,4 C 86 % 1011,4 hPa 0,0 mm 0,1 km/h N-NO 336 0 min 0 min 0,000 mm 0,0 UV-I 0 W/m 6,2 C 8,4 C 1,8 km/h 100,00 %
07/04/2022 02:08 8,4 C 86 % 1011,4 hPa 0,0 mm 0,0 km/h N-NO 336 0 min 0 min 0,000 mm 0,0 UV-I 0 W/m 6,2 C 8,4 C 0,0 km/h 92,31 %
07/04/2022 02:07 8,4 C 86 % 1011,3 hPa 0,0 mm 0,0 km/h N-NO 337 0 min 0 min 0,000 mm 0,0 UV-I 0 W/m 6,2 C 8,4 C 0,0 km/h 95,83 %
07/04/2022 02:06 8,4 C 86 % 1011,3 hPa 0,0 mm 0,3 km/h N-NO 337 0 min 0 min 0,000 mm 0,0 UV-I 0 W/m 6,2 C 8,4 C 1,8 km/h 95,83 %
07/04/2022 02:05 8,4 C 86 % 1011,3 hPa 0,0 mm 0,1 km/h N-NO 337 0 min 0 min 0,000 mm 0,0 UV-I 0 W/m 6,2 C 8,4 C 1,8 km/h 91,67 %
07/04/2022 02:04 8,4 C 86 % 1011,3 hPa 0,0 mm 0,0 km/h N-NO 337 0 min 0 min 0,000 mm 0,0 UV-I 0 W/m 6,2 C 8,4 C 0,0 km/h 100,00 %
07/04/2022 02:03 8,4 C 86 % 1011,4 hPa 0,0 mm 0,1 km/h N-NO 337 0 min 0 min 0,000 mm 0,0 UV-I 0 W/m 6,2 C 8,4 C 1,8 km/h 86,67 %
07/04/2022 02:02 8,4 C 86 % 1011,4 hPa 0,0 mm 0,0 km/h N-NO 337 0 min 0 min 0,000 mm 0,0 UV-I 0 W/m 6,2 C 8,4 C 0,0 km/h 100,00 %
07/04/2022 02:01 8,4 C 86 % 1011,3 hPa 0,0 mm 0,3 km/h N-NO 337 0 min 0 min 0,000 mm 0,0 UV-I 0 W/m 6,2 C 8,4 C 1,8 km/h 100,00 %
07/04/2022 02:00 8,4 C 86 % 1011,3 hPa 0,0 mm 0,0 km/h N-NO 336 0 min 0 min 0,000 mm 0,0 UV-I 0 W/m 6,2 C 8,4 C 0,0 km/h 100,00 %
07/04/2022 01:59 8,4 C 86 % 1011,3 hPa 0,0 mm 0,2 km/h N-NO 336 0 min 0 min 0,000 mm 0,0 UV-I 0 W/m 6,2 C 8,4 C 1,8 km/h 100,00 %
07/04/2022 01:58 8,4 C 86 % 1011,4 hPa 0,0 mm 0,3 km/h N-NO 336 0 min 0 min 0,000 mm 0,0 UV-I 0 W/m 6,2 C 8,4 C 1,8 km/h 100,00 %
07/04/2022 01:57 8,4 C 86 % 1011,4 hPa 0,0 mm 0,1 km/h N-NO 337 0 min 0 min 0,000 mm 0,0 UV-I 0 W/m 6,2 C 8,4 C 1,8 km/h 100,00 %
07/04/2022 01:56 8,4 C 85 % 1011,4 hPa 0,0 mm 0,1 km/h N-NO 337 0 min 0 min 0,000 mm 0,0 UV-I 0 W/m 6,0 C 8,4 C 1,8 km/h 100,00 %
07/04/2022 01:55 8,4 C 85 % 1011,3 hPa 0,0 mm 0,0 km/h N-NO 337 0 min 0 min 0,000 mm 0,0 UV-I 0 W/m 6,0 C 8,4 C 0,0 km/h 100,00 %
07/04/2022 01:54 8,4 C 85 % 1011,4 hPa 0,0 mm 0,1 km/h N-NO 337 0 min 0 min 0,000 mm 0,0 UV-I 0 W/m 6,0 C 8,4 C 1,8 km/h 100,00 %
07/04/2022 01:53 8,4 C 85 % 1011,3 hPa 0,0 mm 0,2 km/h N-NO 337 0 min 0 min 0,000 mm 0,0 UV-I 0 W/m 6,0 C 8,4 C 1,8 km/h 100,00 %
07/04/2022 01:52 8,5 C 85 % 1011,4 hPa 0,0 mm 0,0 km/h N-NO 337 0 min 0 min 0,000 mm 0,0 UV-I 0 W/m 6,1 C 8,5 C 0,0 km/h 100,00 %
07/04/2022 01:51 8,5 C 85 % 1011,4 hPa 0,0 mm 0,0 km/h N-NO 337 0 min 0 min 0,000 mm 0,0 UV-I 0 W/m 6,1 C 8,5 C 0,0 km/h 100,00 %
07/04/2022 01:50 8,5 C 85 % 1011,4 hPa 0,0 mm 0,0 km/h N-NO 337 0 min 0 min 0,000 mm 0,0 UV-I 0 W/m 6,1 C 8,5 C 0,0 km/h 100,00 %
07/04/2022 01:49 8,5 C 85 % 1011,4 hPa 0,0 mm 0,0 km/h N-NO 337 0 min 0 min 0,000 mm 0,0 UV-I 0 W/m 6,1 C 8,5 C 0,0 km/h 100,00 %
07/04/2022 01:48 8,5 C 85 % 1011,4 hPa 0,0 mm 0,1 km/h N-NO 337 0 min 0 min 0,000 mm 0,0 UV-I 0 W/m 6,1 C 8,5 C 1,8 km/h 100,00 %
07/04/2022 01:47 8,6 C 85 % 1011,4 hPa 0,0 mm 0,4 km/h N-NO 337 0 min 0 min 0,000 mm 0,0 UV-I 0 W/m 6,2 C 8,6 C 1,8 km/h 100,00 %
07/04/2022 01:46 8,6 C 85 % 1011,4 hPa 0,0 mm 0,2 km/h N-NO 337 0 min 0 min 0,000 mm 0,0 UV-I 0 W/m 6,2 C 8,6 C 1,8 km/h 96,00 %
07/04/2022 01:45 8,6 C 85 % 1011,5 hPa 0,0 mm 0,8 km/h N-NO 337 0 min 0 min 0,000 mm 0,0 UV-I 0 W/m 6,2 C 8,6 C 3,5 km/h 100,00 %
07/04/2022 01:44 8,6 C 85 % 1011,4 hPa 0,0 mm 0,5 km/h N-NO 337 0 min 0 min 0,000 mm 0,0 UV-I 0 W/m 6,2 C 8,6 C 1,8 km/h 96,30 %
07/04/2022 01:43 8,6 C 85 % 1011,4 hPa 0,0 mm 0,5 km/h N-NO 337 0 min 0 min 0,000 mm 0,0 UV-I 0 W/m 6,2 C 8,6 C 1,8 km/h 96,00 %
07/04/2022 01:42 8,6 C 85 % 1011,4 hPa 0,0 mm 0,0 km/h N-NO 337 0 min 0 min 0,000 mm 0,0 UV-I 0 W/m 6,2 C 8,6 C 0,0 km/h 100,00 %
07/04/2022 01:41 8,7 C 85 % 1011,4 hPa 0,0 mm 0,0 km/h N-NO 337 0 min 0 min 0,000 mm 0,0 UV-I 0 W/m 6,3 C 8,7 C 0,0 km/h 100,00 %
07/04/2022 01:40 8,7 C 85 % 1011,4 hPa 0,0 mm 0,0 km/h N-NO 337 0 min 0 min 0,000 mm 0,0 UV-I 0 W/m 6,3 C 8,7 C 0,0 km/h 100,00 %
07/04/2022 01:39 8,7 C 85 % 1011,4 hPa 0,0 mm 0,0 km/h N-NO 337 0 min 0 min 0,000 mm 0,0 UV-I 0 W/m 6,3 C 8,7 C 0,0 km/h 100,00 %
07/04/2022 01:38 8,7 C 85 % 1011,4 hPa 0,0 mm 0,0 km/h N-NO 337 0 min 0 min 0,000 mm 0,0 UV-I 0 W/m 6,3 C 8,7 C 0,0 km/h 100,00 %
07/04/2022 01:37 8,7 C 85 % 1011,3 hPa 0,0 mm 0,0 km/h N-NO 337 0 min 0 min 0,000 mm 0,0 UV-I 0 W/m 6,3 C 8,7 C 0,0 km/h 100,00 %
07/04/2022 01:36 8,7 C 85 % 1011,4 hPa 0,0 mm 0,0 km/h N-NO 337 0 min 0 min 0,000 mm 0,0 UV-I 0 W/m 6,3 C 8,7 C 0,0 km/h 100,00 %
07/04/2022 01:35 8,7 C 85 % 1011,4 hPa 0,0 mm 0,0 km/h N-NO 337 0 min 0 min 0,000 mm 0,0 UV-I 0 W/m 6,3 C 8,7 C 0,0 km/h 95,65 %
07/04/2022 01:34 8,7 C 85 % 1011,3 hPa 0,0 mm 0,0 km/h N-NO 337 0 min 0 min 0,000 mm 0,0 UV-I 0 W/m 6,3 C 8,7 C 0,0 km/h 95,83 %
07/04/2022 01:33 8,7 C 85 % 1011,3 hPa 0,0 mm 0,0 km/h N-NO 337 0 min 0 min 0,000 mm 0,0 UV-I 0 W/m 6,3 C 8,7 C 0,0 km/h 96,00 %
07/04/2022 01:32 8,7 C 85 % 1011,3 hPa 0,0 mm 0,0 km/h N-NO 337 0 min 0 min 0,000 mm 0,0 UV-I 0 W/m 6,3 C 8,7 C 0,0 km/h 91,67 %
07/04/2022 01:31 8,7 C 85 % 1011,3 hPa 0,0 mm 0,0 km/h N-NO 337 0 min 0 min 0,000 mm 0,0 UV-I 0 W/m 6,3 C 8,7 C 0,0 km/h 92,31 %
07/04/2022 01:30 8,7 C 85 % 1011,3 hPa 0,0 mm 0,0 km/h N-NO 337 0 min 0 min 0,000 mm 0,0 UV-I 0 W/m 6,3 C 8,7 C 0,0 km/h 100,00 %
07/04/2022 01:29 8,8 C 85 % 1011,3 hPa 0,0 mm 0,0 km/h N-NO 337 0 min 0 min 0,000 mm 0,0 UV-I 0 W/m 6,4 C 8,8 C 0,0 km/h 96,00 %
07/04/2022 01:28 8,8 C 85 % 1011,4 hPa 0,0 mm 0,0 km/h N-NO 337 0 min 0 min 0,000 mm 0,0 UV-I 0 W/m 6,4 C 8,8 C 0,0 km/h 96,15 %
07/04/2022 01:27 8,8 C 85 % 1011,4 hPa 0,0 mm 0,0 km/h N-NO 337 0 min 0 min 0,000 mm 0,0 UV-I 0 W/m 6,4 C 8,8 C 0,0 km/h 96,15 %
07/04/2022 01:26 8,8 C 85 % 1011,4 hPa 0,0 mm 0,0 km/h N-NO 337 0 min 0 min 0,000 mm 0,0 UV-I 0 W/m 6,4 C 8,8 C 0,0 km/h 100,00 %
07/04/2022 01:25 8,8 C 85 % 1011,4 hPa 0,0 mm 0,0 km/h N-NO 337 0 min 0 min 0,000 mm 0,0 UV-I 0 W/m 6,4 C 8,8 C 0,0 km/h 100,00 %
07/04/2022 01:24 8,8 C 85 % 1011,4 hPa 0,0 mm 0,1 km/h N-NO 337 0 min 0 min 0,000 mm 0,0 UV-I 0 W/m 6,4 C 8,8 C 1,8 km/h 100,00 %
07/04/2022 01:23 8,8 C 85 % 1011,4 hPa 0,0 mm 0,1 km/h N-NO 337 0 min 0 min 0,000 mm 0,0 UV-I 0 W/m 6,4 C 8,8 C 1,8 km/h 100,00 %
07/04/2022 01:22 8,8 C 85 % 1011,3 hPa 0,0 mm 0,0 km/h N-NO 337 0 min 0 min 0,000 mm 0,0 UV-I 0 W/m 6,4 C 8,8 C 0,0 km/h 100,00 %
07/04/2022 01:21 8,8 C 85 % 1011,4 hPa 0,0 mm 0,3 km/h N-NO 337 0 min 0 min 0,000 mm 0,0 UV-I 0 W/m 6,4 C 8,8 C 1,8 km/h 100,00 %
07/04/2022 01:20 8,9 C 85 % 1011,4 hPa 0,0 mm 0,4 km/h N-NO 337 0 min 0 min 0,000 mm 0,0 UV-I 0 W/m 6,5 C 8,9 C 3,5 km/h 100,00 %
07/04/2022 01:19 8,9 C 85 % 1011,3 hPa 0,0 mm 0,6 km/h N-NO 337 0 min 0 min 0,000 mm 0,0 UV-I 0 W/m 6,5 C 8,9 C 3,5 km/h 100,00 %
07/04/2022 01:18 8,9 C 85 % 1011,3 hPa 0,0 mm 1,3 km/h NO 316 0 min 0 min 0,000 mm 0,0 UV-I 0 W/m 6,5 C 8,9 C 3,5 km/h 95,65 %
07/04/2022 01:17 8,9 C 85 % 1011,3 hPa 0,0 mm 0,0 km/h NO 315 0 min 0 min 0,000 mm 0,0 UV-I 0 W/m 6,5 C 8,9 C 0,0 km/h 100,00 %
07/04/2022 01:16 8,9 C 85 % 1011,3 hPa 0,0 mm 0,0 km/h NO 315 0 min 0 min 0,000 mm 0,0 UV-I 0 W/m 6,5 C 8,9 C 0,0 km/h 100,00 %
07/04/2022 01:15 8,9 C 85 % 1011,3 hPa 0,0 mm 0,0 km/h NO 315 0 min 0 min 0,000 mm 0,0 UV-I 0 W/m 6,5 C 8,9 C 0,0 km/h 100,00 %
07/04/2022 01:14 9,0 C 85 % 1011,3 hPa 0,0 mm 0,0 km/h NO 315 0 min 0 min 0,000 mm 0,0 UV-I 0 W/m 6,6 C 9,0 C 0,0 km/h 100,00 %
07/04/2022 01:13 9,0 C 85 % 1011,3 hPa 0,0 mm 0,0 km/h NO 315 0 min 0 min 0,000 mm 0,0 UV-I 0 W/m 6,6 C 9,0 C 0,0 km/h 100,00 %
07/04/2022 01:12 9,0 C 85 % 1011,3 hPa 0,0 mm 0,4 km/h NO 315 0 min 0 min 0,000 mm 0,0 UV-I 0 W/m 6,6 C 9,0 C 1,8 km/h 100,00 %
07/04/2022 01:11 9,0 C 85 % 1011,3 hPa 0,0 mm 0,0 km/h NO 315 0 min 0 min 0,000 mm 0,0 UV-I 0 W/m 6,6 C 9,0 C 0,0 km/h 100,00 %
07/04/2022 01:10 9,0 C 85 % 1011,3 hPa 0,0 mm 0,5 km/h NO 315 0 min 0 min 0,000 mm 0,0 UV-I 0 W/m 6,6 C 9,0 C 1,8 km/h 100,00 %
07/04/2022 01:09 9,0 C 85 % 1011,3 hPa 0,0 mm 0,7 km/h NO 315 0 min 0 min 0,000 mm 0,0 UV-I 0 W/m 6,6 C 9,0 C 3,5 km/h 95,65 %
07/04/2022 01:08 9,1 C 85 % 1011,4 hPa 0,0 mm 0,0 km/h NO 315 0 min 0 min 0,000 mm 0,0 UV-I 0 W/m 6,7 C 9,1 C 0,0 km/h 100,00 %
07/04/2022 01:07 9,1 C 85 % 1011,3 hPa 0,0 mm 0,0 km/h NO 315 0 min 0 min 0,000 mm 0,0 UV-I 0 W/m 6,7 C 9,1 C 0,0 km/h 100,00 %
07/04/2022 01:06 9,1 C 85 % 1011,3 hPa 0,0 mm 0,0 km/h NO 315 0 min 0 min 0,000 mm 0,0 UV-I 0 W/m 6,7 C 9,1 C 0,0 km/h 100,00 %
07/04/2022 01:05 9,1 C 85 % 1011,3 hPa 0,0 mm 0,3 km/h NO 315 0 min 0 min 0,000 mm 0,0 UV-I 0 W/m 6,7 C 9,1 C 1,8 km/h 97,56 %
07/04/2022 01:04 9,1 C 85 % 1011,4 hPa 0,0 mm 1,2 km/h NO 315 0 min 0 min 0,000 mm 0,0 UV-I 0 W/m 6,7 C 9,1 C 3,5 km/h 98,09 %
07/04/2022 01:03 9,1 C 85 % 1011,3 hPa 0,0 mm 0,1 km/h SO 224 0 min 0 min 0,000 mm 0,0 UV-I 0 W/m 6,7 C 9,1 C 1,8 km/h 100,00 %
07/04/2022 01:02 9,1 C 85 % 1011,3 hPa 0,0 mm 2,5 km/h SO 224 0 min 0 min 0,000 mm 0,0 UV-I 0 W/m 6,7 C 9,1 C 5,3 km/h 100,00 %
07/04/2022 01:01 9,1 C 85 % 1011,4 hPa 0,0 mm 1,0 km/h N-NO 331 0 min 0 min 0,000 mm 0,0 UV-I 0 W/m 6,7 C 9,1 C 3,5 km/h 95,83 %
07/04/2022 01:00 9,1 C 84 % 1011,3 hPa 0,0 mm 2,9 km/h N-NO 333 0 min 0 min 0,000 mm 0,0 UV-I 0 W/m 6,5 C 9,1 C 7,1 km/h 100,00 %
07/04/2022 00:59 9,0 C 84 % 1011,3 hPa 0,0 mm 2,6 km/h SO 215 0 min 0 min 0,000 mm 0,0 UV-I 0 W/m 6,4 C 9,0 C 8,9 km/h 95,65 %
07/04/2022 00:58 9,1 C 84 % 1011,3 hPa 0,0 mm 0,0 km/h N-NE 24 0 min 0 min 0,000 mm 0,0 UV-I 0 W/m 6,5 C 9,1 C 0,0 km/h 100,00 %
07/04/2022 00:57 9,1 C 84 % 1011,2 hPa 0,0 mm 0,2 km/h N-NE 24 0 min 0 min 0,000 mm 0,0 UV-I 0 W/m 6,5 C 9,1 C 1,8 km/h 92,31 %
07/04/2022 00:56 9,1 C 84 % 1011,3 hPa 0,0 mm 0,2 km/h N-NE 24 0 min 0 min 0,000 mm 0,0 UV-I 0 W/m 6,5 C 9,1 C 1,8 km/h 100,00 %
07/04/2022 00:55 9,1 C 84 % 1011,2 hPa 0,0 mm 0,0 km/h N-NE 24 0 min 0 min 0,000 mm 0,0 UV-I 0 W/m 6,5 C 9,1 C 0,0 km/h 95,65 %
07/04/2022 00:54 9,1 C 84 % 1011,2 hPa 0,0 mm 0,0 km/h N-NE 24 0 min 0 min 0,000 mm 0,0 UV-I 0 W/m 6,5 C 9,1 C 0,0 km/h 100,00 %
07/04/2022 00:53 9,1 C 84 % 1011,2 hPa 0,0 mm 0,0 km/h N-NE 24 0 min 0 min 0,000 mm 0,0 UV-I 0 W/m 6,5 C 9,1 C 0,0 km/h 95,83 %
07/04/2022 00:52 9,1 C 84 % 1011,3 hPa 0,0 mm 0,3 km/h N-NE 24 0 min 0 min 0,000 mm 0,0 UV-I 0 W/m 6,5 C 9,1 C 1,8 km/h 95,65 %
07/04/2022 00:51 9,1 C 84 % 1011,2 hPa 0,0 mm 0,8 km/h N-NE 24 0 min 0 min 0,000 mm 0,0 UV-I 0 W/m 6,5 C 9,1 C 3,5 km/h 95,83 %
07/04/2022 00:50 9,1 C 84 % 1011,3 hPa 0,0 mm 2,5 km/h N-NE 24 0 min 0 min 0,000 mm 0,0 UV-I 0 W/m 6,5 C 9,1 C 3,5 km/h 100,00 %
07/04/2022 00:49 9,2 C 84 % 1011,3 hPa 0,0 mm 1,4 km/h N-NE 24 0 min 0 min 0,000 mm 0,0 UV-I 0 W/m 6,6 C 9,2 C 3,5 km/h 100,00 %
07/04/2022 00:48 9,2 C 84 % 1011,3 hPa 0,0 mm 3,9 km/h N-NE 24 0 min 0 min 0,000 mm 0,0 UV-I 0 W/m 6,6 C 9,2 C 7,1 km/h 100,00 %
07/04/2022 00:47 9,2 C 84 % 1011,3 hPa 0,0 mm 1,3 km/h O-NO 302 0 min 0 min 0,000 mm 0,0 UV-I 0 W/m 6,6 C 9,2 C 3,5 km/h 100,00 %
07/04/2022 00:46 9,2 C 84 % 1011,3 hPa 0,0 mm 0,0 km/h O-NO 284 0 min 0 min 0,000 mm 0,0 UV-I 0 W/m 6,6 C 9,2 C 0,0 km/h 100,00 %
07/04/2022 00:45 9,2 C 83 % 1011,3 hPa 0,0 mm 0,0 km/h O-NO 284 0 min 0 min 0,000 mm 0,0 UV-I 0 W/m 6,5 C 9,2 C 0,0 km/h 100,00 %
07/04/2022 00:44 9,2 C 83 % 1011,3 hPa 0,0 mm 0,0 km/h O-NO 284 0 min 0 min 0,000 mm 0,0 UV-I 0 W/m 6,5 C 9,2 C 0,0 km/h 96,15 %
07/04/2022 00:43 9,2 C 83 % 1011,3 hPa 0,0 mm 0,1 km/h O-NO 284 0 min 0 min 0,000 mm 0,0 UV-I 0 W/m 6,5 C 9,2 C 1,8 km/h 100,00 %
07/04/2022 00:42 9,2 C 83 % 1011,3 hPa 0,0 mm 0,0 km/h O-NO 284 0 min 0 min 0,000 mm 0,0 UV-I 0 W/m 6,5 C 9,2 C 0,0 km/h 95,65 %
07/04/2022 00:41 9,3 C 83 % 1011,3 hPa 0,0 mm 0,0 km/h O-NO 284 0 min 0 min 0,000 mm 0,0 UV-I 0 W/m 6,6 C 9,3 C 0,0 km/h 97,73 %
07/04/2022 00:40 9,3 C 83 % 1011,4 hPa 0,0 mm 0,0 km/h O-NO 284 0 min 0 min 0,000 mm 0,0 UV-I 0 W/m 6,6 C 9,3 C 0,0 km/h 98,10 %
07/04/2022 00:39 9,3 C 83 % 1011,4 hPa 0,0 mm 0,0 km/h O-NO 284 0 min 0 min 0,000 mm 0,0 UV-I 0 W/m 6,6 C 9,3 C 0,0 km/h 95,83 %
07/04/2022 00:38 9,3 C 83 % 1011,4 hPa 0,0 mm 0,0 km/h O-NO 284 0 min 0 min 0,000 mm 0,0 UV-I 0 W/m 6,6 C 9,3 C 0,0 km/h 100,00 %
07/04/2022 00:37 9,3 C 83 % 1011,4 hPa 0,0 mm 0,0 km/h O-NO 284 0 min 0 min 0,000 mm 0,0 UV-I 0 W/m 6,6 C 9,3 C 0,0 km/h 100,00 %
07/04/2022 00:36 9,3 C 83 % 1011,3 hPa 0,0 mm 0,0 km/h O-NO 284 0 min 0 min 0,000 mm 0,0 UV-I 0 W/m 6,6 C 9,3 C 0,0 km/h 100,00 %
07/04/2022 00:35 9,3 C 83 % 1011,3 hPa 0,0 mm 0,0 km/h O-NO 284 0 min 0 min 0,000 mm 0,0 UV-I 0 W/m 6,6 C 9,3 C 0,0 km/h 100,00 %
07/04/2022 00:34 9,3 C 83 % 1011,4 hPa 0,0 mm 0,0 km/h O-NO 284 0 min 0 min 0,000 mm 0,0 UV-I 0 W/m 6,6 C 9,3 C 0,0 km/h 100,00 %
07/04/2022 00:33 9,3 C 83 % 1011,4 hPa 0,0 mm 0,0 km/h O-NO 284 0 min 0 min 0,000 mm 0,0 UV-I 0 W/m 6,6 C 9,3 C 0,0 km/h 100,00 %
07/04/2022 00:32 9,3 C 83 % 1011,4 hPa 0,0 mm 0,0 km/h O-NO 284 0 min 0 min 0,000 mm 0,0 UV-I 0 W/m 6,6 C 9,3 C 0,0 km/h 100,00 %
07/04/2022 00:31 9,3 C 83 % 1011,4 hPa 0,0 mm 0,0 km/h O-NO 284 0 min 0 min 0,000 mm 0,0 UV-I 0 W/m 6,6 C 9,3 C 0,0 km/h 100,00 %
07/04/2022 00:30 9,3 C 83 % 1011,4 hPa 0,0 mm 0,0 km/h O-NO 284 0 min 0 min 0,000 mm 0,0 UV-I 0 W/m 6,6 C 9,3 C 0,0 km/h 100,00 %
07/04/2022 00:29 9,4 C 83 % 1011,3 hPa 0,0 mm 0,0 km/h O-NO 284 0 min 0 min 0,000 mm 0,0 UV-I 0 W/m 6,7 C 9,4 C 0,0 km/h 100,00 %
07/04/2022 00:28 9,4 C 83 % 1011,3 hPa 0,0 mm 0,0 km/h O-NO 284 0 min 0 min 0,000 mm 0,0 UV-I 0 W/m 6,7 C 9,4 C 0,0 km/h 100,00 %
07/04/2022 00:27 9,4 C 83 % 1011,3 hPa 0,0 mm 0,0 km/h O-NO 284 0 min 0 min 0,000 mm 0,0 UV-I 0 W/m 6,7 C 9,4 C 0,0 km/h 100,00 %
07/04/2022 00:26 9,4 C 83 % 1011,3 hPa 0,0 mm 0,0 km/h O-NO 284 0 min 0 min 0,000 mm 0,0 UV-I 0 W/m 6,7 C 9,4 C 0,0 km/h 97,21 %
07/04/2022 00:25 9,4 C 83 % 1011,4 hPa 0,0 mm 0,0 km/h O-NO 284 0 min 0 min 0,000 mm 0,0 UV-I 0 W/m 6,7 C 9,4 C 0,0 km/h 95,83 %
07/04/2022 00:24 9,4 C 83 % 1011,4 hPa 0,0 mm 0,0 km/h O-NO 284 0 min 0 min 0,000 mm 0,0 UV-I 0 W/m 6,7 C 9,4 C 0,0 km/h 100,00 %
07/04/2022 00:23 9,4 C 83 % 1011,4 hPa 0,0 mm 0,0 km/h O-NO 284 0 min 0 min 0,000 mm 0,0 UV-I 0 W/m 6,7 C 9,4 C 0,0 km/h 96,55 %
07/04/2022 00:22 9,4 C 83 % 1011,4 hPa 0,0 mm 0,0 km/h O-NO 284 0 min 0 min 0,000 mm 0,0 UV-I 0 W/m 6,7 C 9,4 C 0,0 km/h 100,00 %
07/04/2022 00:21 9,4 C 83 % 1011,3 hPa 0,0 mm 0,0 km/h O-NO 284 0 min 0 min 0,000 mm 0,0 UV-I 0 W/m 6,7 C 9,4 C 0,0 km/h 92,31 %
07/04/2022 00:20 9,5 C 82 % 1011,4 hPa 0,0 mm 0,0 km/h O-NO 284 0 min 0 min 0,000 mm 0,0 UV-I 0 W/m 6,6 C 9,5 C 0,0 km/h 100,00 %
07/04/2022 00:19 9,4 C 82 % 1011,4 hPa 0,0 mm 0,0 km/h O-NO 284 0 min 0 min 0,000 mm 0,0 UV-I 0 W/m 6,5 C 9,4 C 0,0 km/h 95,65 %
07/04/2022 00:18 9,5 C 82 % 1011,4 hPa 0,0 mm 0,0 km/h O-NO 284 0 min 0 min 0,000 mm 0,0 UV-I 0 W/m 6,6 C 9,5 C 0,0 km/h 100,00 %
07/04/2022 00:17 9,5 C 82 % 1011,4 hPa 0,0 mm 0,0 km/h O-NO 284 0 min 0 min 0,000 mm 0,0 UV-I 0 W/m 6,6 C 9,5 C 0,0 km/h 95,65 %
07/04/2022 00:16 9,5 C 82 % 1011,3 hPa 0,0 mm 0,0 km/h O-NO 284 0 min 0 min 0,000 mm 0,0 UV-I 0 W/m 6,6 C 9,5 C 0,0 km/h 100,00 %
07/04/2022 00:15 9,5 C 82 % 1011,3 hPa 0,0 mm 0,0 km/h O-NO 284 0 min 0 min 0,000 mm 0,0 UV-I 0 W/m 6,6 C 9,5 C 0,0 km/h 100,00 %
07/04/2022 00:14 9,5 C 82 % 1011,3 hPa 0,0 mm 0,0 km/h O-NO 284 0 min 0 min 0,000 mm 0,0 UV-I 0 W/m 6,6 C 9,5 C 0,0 km/h 100,00 %
07/04/2022 00:13 9,6 C 82 % 1011,3 hPa 0,0 mm 0,0 km/h O-NO 284 0 min 0 min 0,000 mm 0,0 UV-I 0 W/m 6,7 C 9,6 C 0,0 km/h 100,00 %
07/04/2022 00:12 9,6 C 82 % 1011,3 hPa 0,0 mm 0,0 km/h O-NO 284 0 min 0 min 0,000 mm 0,0 UV-I 0 W/m 6,7 C 9,6 C 0,0 km/h 96,15 %
07/04/2022 00:11 9,6 C 82 % 1011,3 hPa 0,0 mm 0,0 km/h O-NO 284 0 min 0 min 0,000 mm 0,0 UV-I 0 W/m 6,7 C 9,6 C 0,0 km/h 95,65 %
07/04/2022 00:10 9,6 C 82 % 1011,3 hPa 0,0 mm 0,0 km/h O-NO 284 0 min 0 min 0,000 mm 0,0 UV-I 0 W/m 6,7 C 9,6 C 0,0 km/h 95,83 %
07/04/2022 00:09 9,6 C 82 % 1011,2 hPa 0,0 mm 0,0 km/h O-NO 284 0 min 0 min 0,000 mm 0,0 UV-I 0 W/m 6,7 C 9,6 C 0,0 km/h 100,00 %
07/04/2022 00:08 9,6 C 82 % 1011,3 hPa 0,0 mm 0,0 km/h O-NO 284 0 min 0 min 0,000 mm 0,0 UV-I 0 W/m 6,7 C 9,6 C 0,0 km/h 88,89 %
07/04/2022 00:07 9,6 C 82 % 1011,2 hPa 0,0 mm 0,0 km/h O-NO 284 0 min 0 min 0,000 mm 0,0 UV-I 0 W/m 6,7 C 9,6 C 0,0 km/h 100,00 %
07/04/2022 00:06 9,6 C 82 % 1011,3 hPa 0,0 mm 0,0 km/h O-NO 284 0 min 0 min 0,000 mm 0,0 UV-I 0 W/m 6,7 C 9,6 C 0,0 km/h 95,59 %
07/04/2022 00:03 9,7 C 82 % 1011,3 hPa 0,0 mm 0,0 km/h O-NO 284 0 min 0 min 0,000 mm 0,0 UV-I 0 W/m 6,8 C 9,7 C 0,0 km/h 95,83 %
07/04/2022 00:02 9,7 C 82 % 1011,3 hPa 0,0 mm 0,0 km/h O-NO 284 0 min 0 min 0,000 mm 0,0 UV-I 0 W/m 6,8 C 9,7 C 0,0 km/h 100,00 %
07/04/2022 00:01 9,7 C 82 % 1011,3 hPa 0,0 mm 0,0 km/h O-NO 284 0 min 0 min 0,000 mm 0,0 UV-I 0 W/m 6,8 C 9,7 C 0,0 km/h 97,22 %
_ Min-Heure 01:53 13:01 04:39 - 00:01 - - - - - - - 01:53 01:53 00:01 07:29
Minimum _ 8,4 C 63 % 1010,6 hPa - 0,0 km/h - - - - - - - 6,0 C 8,4 C 0,0 km/h 81,82 %
_ Max-Heure 13:02 02:17 11:29 00:01 11:40 - - 00:01 00:01 13:01 12:04 12:08 10:57 12:50 11:57 00:02
Maximum _ 16,1 C 87 % 1012,7 hPa 0,0 mm 15,9 km/h
S-SO
- - 0 min 0 min 0,178 mm 1,5 UV-I 323 W/m 9,6 C 15,9 C 31,9 km/h
S-SO
100,00 %
Moyenne _ 11,3 C 79 % 1011,7 hPa #0,0 mm 2,2 km/h SO - #0 min. #0 min. #0,635 mm 1,1 UV-I 169 W/m 7,7 C 11,1 C 4,9 km/h 97,72 %
AUBAIS - Gard